Wetterdaten: Mittwoch, 09.11.2016
Datum Zeit Temp. A. Feuchte A. Luftdruck Regen Wind Richtung Richtung Sonnenschein ET UV Solar Taupunkt Windchill Windben Empfang
09.11.2016 00:00 0,1 C 98 % 1012,2 hPa 0,0 l/m 2,9 km/h (1 Bft) SO 145 0 min 0,000 mm 0,0 UV-I 0 W/m -0,2 C 0,1 C 4,8 km/h (1 Bft) 95,74 %
09.11.2016 00:02 0,1 C 98 % 1012,2 hPa 0,0 l/m 1,5 km/h (1 Bft) SO 145 0 min 0,000 mm 0,0 UV-I 0 W/m -0,2 C 0,1 C 4,8 km/h (1 Bft) 96,77 %
09.11.2016 00:04 0,1 C 98 % 1012,1 hPa 0,0 l/m 0,8 km/h (0 Bft) SO 145 0 min 0,000 mm 0,0 UV-I 0 W/m -0,2 C 0,1 C 3,2 km/h (1 Bft) 96,43 %
09.11.2016 00:06 0,1 C 98 % 1012,1 hPa 0,0 l/m 0,1 km/h (0 Bft) SO 145 0 min 0,000 mm 0,0 UV-I 0 W/m -0,2 C 0,1 C 1,6 km/h (1 Bft) 98,11 %
09.11.2016 00:08 0,1 C 98 % 1012,0 hPa 0,0 l/m 1,1 km/h (1 Bft) SO 145 0 min 0,000 mm 0,0 UV-I 0 W/m -0,2 C 0,1 C 3,2 km/h (1 Bft) 97,87 %
09.11.2016 00:10 0,0 C 98 % 1012,0 hPa 0,0 l/m 1,6 km/h (1 Bft) SO 145 0 min 0,000 mm 0,0 UV-I 0 W/m -0,3 C 0,0 C 3,2 km/h (1 Bft) 97,56 %
09.11.2016 00:12 0,0 C 98 % 1011,9 hPa 0,0 l/m 1,1 km/h (1 Bft) SO 145 0 min 0,000 mm 0,0 UV-I 0 W/m -0,3 C 0,0 C 3,2 km/h (1 Bft) 97,87 %
09.11.2016 00:14 0,0 C 98 % 1012,0 hPa 0,0 l/m 1,1 km/h (1 Bft) SO 145 0 min 0,000 mm 0,0 UV-I 0 W/m -0,3 C 0,0 C 3,2 km/h (1 Bft) 100,00 %
09.11.2016 00:16 0,0 C 98 % 1012,0 hPa 0,0 l/m 1,1 km/h (1 Bft) SO 145 0 min 0,000 mm 0,0 UV-I 0 W/m -0,3 C 0,0 C 3,2 km/h (1 Bft) 100,00 %
09.11.2016 00:18 0,1 C 98 % 1012,0 hPa 0,0 l/m 1,5 km/h (1 Bft) SO 145 0 min 0,000 mm 0,0 UV-I 0 W/m -0,2 C 0,1 C 3,2 km/h (1 Bft) 96,00 %
09.11.2016 00:20 0,1 C 98 % 1012,0 hPa 0,0 l/m 1,6 km/h (1 Bft) SO 145 0 min 0,000 mm 0,0 UV-I 0 W/m -0,2 C 0,1 C 3,2 km/h (1 Bft) 100,00 %
09.11.2016 00:22 0,1 C 98 % 1012,0 hPa 0,0 l/m 1,3 km/h (1 Bft) SO 145 0 min 0,000 mm 0,0 UV-I 0 W/m -0,2 C 0,1 C 3,2 km/h (1 Bft) 100,00 %
09.11.2016 00:24 0,1 C 98 % 1012,0 hPa 0,0 l/m 1,5 km/h (1 Bft) SO 145 0 min 0,000 mm 0,0 UV-I 0 W/m -0,2 C 0,1 C 3,2 km/h (1 Bft) 100,00 %
09.11.2016 00:26 0,1 C 98 % 1012,0 hPa 0,0 l/m 1,7 km/h (1 Bft) SO 145 0 min 0,000 mm 0,0 UV-I 0 W/m -0,2 C 0,1 C 4,8 km/h (1 Bft) 98,00 %
09.11.2016 00:28 0,2 C 98 % 1012,0 hPa 0,0 l/m 2,6 km/h (1 Bft) S-SO 147 0 min 0,000 mm 0,0 UV-I 0 W/m -0,1 C 0,2 C 6,4 km/h (2 Bft) 97,87 %
09.11.2016 00:30 0,2 C 98 % 1012,0 hPa 0,0 l/m 0,8 km/h (0 Bft) S-SO 147 0 min 0,000 mm 0,0 UV-I 0 W/m -0,1 C 0,2 C 1,6 km/h (1 Bft) 98,00 %
09.11.2016 00:32 0,2 C 98 % 1012,0 hPa 0,0 l/m 2,9 km/h (1 Bft) S-SO 152 0 min 0,000 mm 0,0 UV-I 0 W/m -0,1 C 0,2 C 6,4 km/h (2 Bft) 97,87 %
09.11.2016 00:34 0,2 C 98 % 1012,0 hPa 0,0 l/m 5,4 km/h (1 Bft) S 170 0 min 0,000 mm 0,0 UV-I 0 W/m -0,1 C 0,2 C 8,0 km/h (2 Bft) 100,00 %
09.11.2016 00:36 0,2 C 98 % 1012,0 hPa 0,0 l/m 4,6 km/h (1 Bft) W-SW 243 0 min 0,000 mm 0,0 UV-I 0 W/m -0,1 C 0,2 C 8,0 km/h (2 Bft) 98,51 %
09.11.2016 00:38 0,2 C 98 % 1012,0 hPa 0,0 l/m 2,2 km/h (1 Bft) W-SW 243 0 min 0,000 mm 0,0 UV-I 0 W/m -0,1 C 0,2 C 6,4 km/h (2 Bft) 97,87 %
09.11.2016 00:40 0,2 C 98 % 1012,0 hPa 0,0 l/m 2,5 km/h (1 Bft) W-SW 237 0 min 0,000 mm 0,0 UV-I 0 W/m -0,1 C 0,2 C 4,8 km/h (1 Bft) 100,00 %
09.11.2016 00:42 0,2 C 98 % 1011,9 hPa 0,0 l/m 3,1 km/h (1 Bft) W-SW 237 0 min 0,000 mm 0,0 UV-I 0 W/m -0,1 C 0,2 C 4,8 km/h (1 Bft) 100,00 %
09.11.2016 00:44 0,2 C 98 % 1011,9 hPa 0,0 l/m 4,9 km/h (1 Bft) W-SW 240 0 min 0,000 mm 0,0 UV-I 0 W/m -0,1 C 0,2 C 8,0 km/h (2 Bft) 97,87 %
09.11.2016 00:46 0,2 C 98 % 1011,9 hPa 0,0 l/m 4,9 km/h (1 Bft) W-SW 246 0 min 0,000 mm 0,0 UV-I 0 W/m -0,1 C 0,2 C 8,0 km/h (2 Bft) 100,00 %
09.11.2016 00:48 0,2 C 98 % 1011,9 hPa 0,0 l/m 4,4 km/h (1 Bft) W-SW 246 0 min 0,000 mm 0,0 UV-I 0 W/m -0,1 C 0,2 C 6,4 km/h (2 Bft) 95,74 %
09.11.2016 00:50 0,1 C 98 % 1011,9 hPa 0,0 l/m 1,8 km/h (1 Bft) W-SW 246 0 min 0,000 mm 0,0 UV-I 0 W/m -0,2 C 0,1 C 3,2 km/h (1 Bft) 100,00 %
09.11.2016 00:52 0,1 C 98 % 1011,9 hPa 0,0 l/m 2,8 km/h (1 Bft) W-SW 246 0 min 0,000 mm 0,0 UV-I 0 W/m -0,2 C 0,1 C 4,8 km/h (1 Bft) 100,00 %
09.11.2016 00:54 0,2 C 98 % 1012,0 hPa 0,0 l/m 3,4 km/h (1 Bft) W-SW 247 0 min 0,000 mm 0,0 UV-I 0 W/m -0,1 C 0,2 C 4,8 km/h (1 Bft) 100,00 %
09.11.2016 00:56 0,1 C 98 % 1012,0 hPa 0,0 l/m 6,1 km/h (2 Bft) W-SW 245 0 min 0,000 mm 0,0 UV-I 0 W/m -0,2 C 0,1 C 11,3 km/h (2 Bft) 100,00 %
09.11.2016 00:58 0,1 C 98 % 1012,0 hPa 0,0 l/m 3,4 km/h (1 Bft) W-SW 252 0 min 0,000 mm 0,0 UV-I 0 W/m -0,2 C 0,1 C 6,4 km/h (2 Bft) 100,00 %
09.11.2016 01:00 0,1 C 98 % 1012,0 hPa 0,0 l/m 6,1 km/h (2 Bft) W 261 0 min 0,000 mm 0,0 UV-I 0 W/m -0,2 C 0,1 C 9,7 km/h (2 Bft) 100,00 %
09.11.2016 01:02 0,1 C 98 % 1012,0 hPa 0,0 l/m 1,5 km/h (1 Bft) W 261 0 min 0,000 mm 0,0 UV-I 0 W/m -0,2 C 0,1 C 3,2 km/h (1 Bft) 97,14 %
09.11.2016 01:04 0,1 C 98 % 1012,0 hPa 0,0 l/m 1,0 km/h (0 Bft) W-SW 251 0 min 0,000 mm 0,0 UV-I 0 W/m -0,2 C 0,1 C 4,8 km/h (1 Bft) 100,00 %
09.11.2016 01:06 0,1 C 98 % 1012,0 hPa 0,0 l/m 0,8 km/h (0 Bft) W-SW 248 0 min 0,000 mm 0,0 UV-I 0 W/m -0,2 C 0,1 C 3,2 km/h (1 Bft) 100,00 %
09.11.2016 01:08 0,0 C 98 % 1012,0 hPa 0,0 l/m 0,7 km/h (0 Bft) S 177 0 min 0,000 mm 0,0 UV-I 0 W/m -0,3 C 0,0 C 3,2 km/h (1 Bft) 100,00 %
09.11.2016 01:10 0,0 C 98 % 1011,9 hPa 0,0 l/m 1,2 km/h (1 Bft) S 177 0 min 0,000 mm 0,0 UV-I 0 W/m -0,3 C 0,0 C 3,2 km/h (1 Bft) 100,00 %
09.11.2016 01:12 0,0 C 98 % 1011,9 hPa 0,0 l/m 1,4 km/h (1 Bft) S 177 0 min 0,000 mm 0,0 UV-I 0 W/m -0,3 C 0,0 C 3,2 km/h (1 Bft) 100,00 %
09.11.2016 01:14 0,0 C 98 % 1012,0 hPa 0,0 l/m 3,8 km/h (1 Bft) S 186 0 min 0,000 mm 0,0 UV-I 0 W/m -0,3 C 0,0 C 6,4 km/h (2 Bft) 100,00 %
09.11.2016 01:16 0,0 C 98 % 1012,0 hPa 0,0 l/m 4,9 km/h (1 Bft) S-SW 196 0 min 0,000 mm 0,0 UV-I 0 W/m -0,3 C 0,0 C 8,0 km/h (2 Bft) 96,00 %
09.11.2016 01:18 0,0 C 98 % 1012,0 hPa 0,0 l/m 3,0 km/h (1 Bft) SW 227 0 min 0,000 mm 0,0 UV-I 0 W/m -0,3 C 0,0 C 4,8 km/h (1 Bft) 100,00 %
09.11.2016 01:20 0,0 C 98 % 1012,0 hPa 0,0 l/m 4,6 km/h (1 Bft) SW 227 0 min 0,000 mm 0,0 UV-I 0 W/m -0,3 C 0,0 C 8,0 km/h (2 Bft) 94,87 %
09.11.2016 01:22 -0,1 C 98 % 1012,0 hPa 0,0 l/m 4,7 km/h (1 Bft) SW 222 0 min 0,000 mm 0,0 UV-I 0 W/m -0,4 C -0,1 C 6,4 km/h (2 Bft) 100,00 %
09.11.2016 01:24 -0,1 C 98 % 1012,0 hPa 0,0 l/m 4,0 km/h (1 Bft) SW 229 0 min 0,000 mm 0,0 UV-I 0 W/m -0,4 C -0,1 C 6,4 km/h (2 Bft) 100,00 %
09.11.2016 01:26 -0,1 C 98 % 1012,1 hPa 0,0 l/m 5,1 km/h (1 Bft) SW 232 0 min 0,000 mm 0,0 UV-I 0 W/m -0,4 C -0,1 C 8,0 km/h (2 Bft) 100,00 %
09.11.2016 01:28 -0,1 C 98 % 1012,1 hPa 0,0 l/m 4,0 km/h (1 Bft) W-SW 242 0 min 0,000 mm 0,0 UV-I 0 W/m -0,4 C -0,1 C 8,0 km/h (2 Bft) 100,00 %
09.11.2016 01:30 0,0 C 98 % 1012,1 hPa 0,0 l/m 2,9 km/h (1 Bft) SW 234 0 min 0,000 mm 0,0 UV-I 0 W/m -0,3 C 0,0 C 6,4 km/h (2 Bft) 100,00 %
09.11.2016 01:32 0,0 C 98 % 1012,1 hPa 0,0 l/m 1,5 km/h (1 Bft) SW 234 0 min 0,000 mm 0,0 UV-I 0 W/m -0,3 C 0,0 C 3,2 km/h (1 Bft) 96,00 %
09.11.2016 01:34 -0,1 C 98 % 1012,2 hPa 0,0 l/m 3,5 km/h (1 Bft) SW 221 0 min 0,000 mm 0,0 UV-I 0 W/m -0,4 C -0,1 C 6,4 km/h (2 Bft) 98,00 %
09.11.2016 01:36 -0,1 C 98 % 1012,2 hPa 0,0 l/m 4,6 km/h (1 Bft) SW 217 0 min 0,000 mm 0,0 UV-I 0 W/m -0,4 C -0,1 C 8,0 km/h (2 Bft) 100,00 %
09.11.2016 01:38 -0,1 C 98 % 1012,2 hPa 0,0 l/m 6,3 km/h (2 Bft) S-SW 209 0 min 0,000 mm 0,0 UV-I 0 W/m -0,4 C -0,1 C 9,7 km/h (2 Bft) 100,00 %
09.11.2016 01:40 -0,2 C 98 % 1012,2 hPa 0,0 l/m 5,3 km/h (1 Bft) S-SW 209 0 min 0,000 mm 0,0 UV-I 0 W/m -0,5 C -0,2 C 6,4 km/h (2 Bft) 100,00 %
09.11.2016 01:42 -0,2 C 98 % 1012,2 hPa 0,0 l/m 3,5 km/h (1 Bft) S-SW 205 0 min 0,000 mm 0,0 UV-I 0 W/m -0,5 C -0,2 C 6,4 km/h (2 Bft) 96,00 %
09.11.2016 01:44 -0,2 C 98 % 1012,2 hPa 0,0 l/m 3,0 km/h (1 Bft) S-SW 205 0 min 0,000 mm 0,0 UV-I 0 W/m -0,5 C -0,2 C 4,8 km/h (1 Bft) 97,37 %
09.11.2016 01:46 -0,2 C 98 % 1012,1 hPa 0,0 l/m 3,0 km/h (1 Bft) S-SW 204 0 min 0,000 mm 0,0 UV-I 0 W/m -0,5 C -0,2 C 6,4 km/h (2 Bft) 98,00 %
09.11.2016 01:48 -0,2 C 98 % 1012,2 hPa 0,0 l/m 3,3 km/h (1 Bft) S 169 0 min 0,000 mm 0,0 UV-I 0 W/m -0,5 C -0,2 C 6,4 km/h (2 Bft) 98,11 %
09.11.2016 01:50 -0,2 C 98 % 1012,2 hPa 0,0 l/m 2,6 km/h (1 Bft) S 172 0 min 0,000 mm 0,0 UV-I 0 W/m -0,5 C -0,2 C 8,0 km/h (2 Bft) 97,37 %
09.11.2016 01:52 -0,3 C 98 % 1012,2 hPa 0,0 l/m 2,9 km/h (1 Bft) S 170 0 min 0,000 mm 0,0 UV-I 0 W/m -0,6 C -0,3 C 6,4 km/h (2 Bft) 98,11 %
09.11.2016 01:54 -0,3 C 98 % 1012,2 hPa 0,0 l/m 3,2 km/h (1 Bft) S 169 0 min 0,000 mm 0,0 UV-I 0 W/m -0,6 C -0,3 C 6,4 km/h (2 Bft) 98,00 %
09.11.2016 01:56 -0,3 C 98 % 1012,1 hPa 0,0 l/m 3,9 km/h (1 Bft) S-SO 168 0 min 0,000 mm 0,0 UV-I 0 W/m -0,6 C -0,3 C 8,0 km/h (2 Bft) 97,22 %
09.11.2016 01:58 -0,3 C 98 % 1012,1 hPa 0,0 l/m 3,6 km/h (1 Bft) S 170 0 min 0,000 mm 0,0 UV-I 0 W/m -0,6 C -0,3 C 8,0 km/h (2 Bft) 98,00 %
09.11.2016 02:00 -0,2 C 98 % 1012,1 hPa 0,0 l/m 3,9 km/h (1 Bft) S-SW 213 0 min 0,000 mm 0,0 UV-I 0 W/m -0,5 C -0,2 C 8,0 km/h (2 Bft) 95,74 %
09.11.2016 02:02 -0,3 C 98 % 1012,1 hPa 0,0 l/m 3,6 km/h (1 Bft) S 189 0 min 0,000 mm 0,0 UV-I 0 W/m -0,6 C -0,3 C 6,4 km/h (2 Bft) 95,45 %
09.11.2016 02:04 -0,3 C 98 % 1012,1 hPa 0,0 l/m 2,4 km/h (1 Bft) S 186 0 min 0,000 mm 0,0 UV-I 0 W/m -0,6 C -0,3 C 4,8 km/h (1 Bft) 96,23 %
09.11.2016 02:06 -0,3 C 98 % 1012,1 hPa 0,0 l/m 0,3 km/h (0 Bft) S 186 0 min 0,000 mm 0,0 UV-I 0 W/m -0,6 C -0,3 C 1,6 km/h (1 Bft) 98,00 %
09.11.2016 02:08 -0,3 C 98 % 1012,2 hPa 0,0 l/m 1,5 km/h (1 Bft) S 186 0 min 0,000 mm 0,0 UV-I 0 W/m -0,6 C -0,3 C 3,2 km/h (1 Bft) 97,37 %
09.11.2016 02:10 -0,2 C 98 % 1012,2 hPa 0,0 l/m 1,8 km/h (1 Bft) S 186 0 min 0,000 mm 0,0 UV-I 0 W/m -0,5 C -0,2 C 4,8 km/h (1 Bft) 98,00 %
09.11.2016 02:12 -0,2 C 98 % 1012,1 hPa 0,0 l/m 3,3 km/h (1 Bft) S-SO 167 0 min 0,000 mm 0,0 UV-I 0 W/m -0,5 C -0,2 C 6,4 km/h (2 Bft) 98,00 %
09.11.2016 02:14 -0,2 C 98 % 1012,1 hPa 0,0 l/m 3,5 km/h (1 Bft) S-SO 160 0 min 0,000 mm 0,0 UV-I 0 W/m -0,5 C -0,2 C 6,4 km/h (2 Bft) 97,56 %
09.11.2016 02:16 -0,2 C 98 % 1012,0 hPa 0,0 l/m 2,0 km/h (1 Bft) S-SO 160 0 min 0,000 mm 0,0 UV-I 0 W/m -0,5 C -0,2 C 3,2 km/h (1 Bft) 97,87 %
09.11.2016 02:18 -0,2 C 98 % 1012,0 hPa 0,0 l/m 4,6 km/h (1 Bft) S-SO 163 0 min 0,000 mm 0,0 UV-I 0 W/m -0,5 C -0,2 C 8,0 km/h (2 Bft) 100,00 %
09.11.2016 02:20 -0,2 C 98 % 1011,9 hPa 0,0 l/m 2,8 km/h (1 Bft) S-SO 163 0 min 0,000 mm 0,0 UV-I 0 W/m -0,5 C -0,2 C 6,4 km/h (2 Bft) 100,00 %
09.11.2016 02:22 -0,2 C 98 % 1012,0 hPa 0,0 l/m 4,0 km/h (1 Bft) S-SO 163 0 min 0,000 mm 0,0 UV-I 0 W/m -0,5 C -0,2 C 8,0 km/h (2 Bft) 100,00 %
09.11.2016 02:24 -0,2 C 98 % 1011,9 hPa 0,0 l/m 2,8 km/h (1 Bft) S-SO 163 0 min 0,000 mm 0,0 UV-I 0 W/m -0,5 C -0,2 C 6,4 km/h (2 Bft) 98,00 %
09.11.2016 02:26 -0,2 C 98 % 1011,9 hPa 0,0 l/m 2,5 km/h (1 Bft) S-SO 163 0 min 0,000 mm 0,0 UV-I 0 W/m -0,5 C -0,2 C 6,4 km/h (2 Bft) 100,00 %
09.11.2016 02:28 -0,2 C 98 % 1011,8 hPa 0,0 l/m 3,4 km/h (1 Bft) S-SW 208 0 min 0,000 mm 0,0 UV-I 0 W/m -0,5 C -0,2 C 9,7 km/h (2 Bft) 100,00 %
09.11.2016 02:30 -0,2 C 98 % 1011,8 hPa 0,0 l/m 1,7 km/h (1 Bft) S-SW 208 0 min 0,000 mm 0,0 UV-I 0 W/m -0,5 C -0,2 C 3,2 km/h (1 Bft) 100,00 %
09.11.2016 02:32 -0,1 C 98 % 1011,8 hPa 0,0 l/m 3,4 km/h (1 Bft) S-SW 208 0 min 0,000 mm 0,0 UV-I 0 W/m -0,4 C -0,1 C 6,4 km/h (2 Bft) 100,00 %
09.11.2016 02:34 -0,1 C 98 % 1011,8 hPa 0,0 l/m 3,0 km/h (1 Bft) S-SW 208 0 min 0,000 mm 0,0 UV-I 0 W/m -0,4 C -0,1 C 6,4 km/h (2 Bft) 100,00 %
09.11.2016 02:36 -0,2 C 98 % 1011,8 hPa 0,0 l/m 2,6 km/h (1 Bft) S-SW 206 0 min 0,000 mm 0,0 UV-I 0 W/m -0,5 C -0,2 C 6,4 km/h (2 Bft) 100,00 %
09.11.2016 02:38 -0,2 C 98 % 1011,6 hPa 0,0 l/m 3,1 km/h (1 Bft) S-SW 206 0 min 0,000 mm 0,0 UV-I 0 W/m -0,5 C -0,2 C 4,8 km/h (1 Bft) 100,00 %
09.11.2016 02:40 -0,2 C 98 % 1011,6 hPa 0,0 l/m 2,5 km/h (1 Bft) S 186 0 min 0,000 mm 0,0 UV-I 0 W/m -0,5 C -0,2 C 4,8 km/h (1 Bft) 97,87 %
09.11.2016 02:42 -0,2 C 98 % 1011,6 hPa 0,0 l/m 2,6 km/h (1 Bft) S 188 0 min 0,000 mm 0,0 UV-I 0 W/m -0,5 C -0,2 C 6,4 km/h (2 Bft) 100,00 %
09.11.2016 02:44 -0,2 C 98 % 1011,6 hPa 0,0 l/m 3,6 km/h (1 Bft) S 188 0 min 0,000 mm 0,0 UV-I 0 W/m -0,5 C -0,2 C 4,8 km/h (1 Bft) 97,87 %
09.11.2016 02:46 -0,2 C 98 % 1011,5 hPa 0,0 l/m 1,9 km/h (1 Bft) S 186 0 min 0,000 mm 0,0 UV-I 0 W/m -0,5 C -0,2 C 4,8 km/h (1 Bft) 100,00 %
09.11.2016 02:48 -0,2 C 98 % 1011,5 hPa 0,0 l/m 2,9 km/h (1 Bft) S 186 0 min 0,000 mm 0,0 UV-I 0 W/m -0,5 C -0,2 C 6,4 km/h (2 Bft) 100,00 %
09.11.2016 02:50 -0,2 C 98 % 1011,5 hPa 0,0 l/m 3,2 km/h (1 Bft) S 186 0 min 0,000 mm 0,0 UV-I 0 W/m -0,5 C -0,2 C 4,8 km/h (1 Bft) 100,00 %
09.11.2016 02:52 -0,2 C 98 % 1011,5 hPa 0,0 l/m 3,7 km/h (1 Bft) S 186 0 min 0,000 mm 0,0 UV-I 0 W/m -0,5 C -0,2 C 6,4 km/h (2 Bft) 100,00 %
09.11.2016 02:54 -0,2 C 98 % 1011,5 hPa 0,0 l/m 3,6 km/h (1 Bft) S 188 0 min 0,000 mm 0,0 UV-I 0 W/m -0,5 C -0,2 C 6,4 km/h (2 Bft) 95,74 %
09.11.2016 02:56 -0,2 C 98 % 1011,4 hPa 0,0 l/m 3,7 km/h (1 Bft) S-SW 197 0 min 0,000 mm 0,0 UV-I 0 W/m -0,5 C -0,2 C 8,0 km/h (2 Bft) 100,00 %
09.11.2016 02:58 -0,2 C 98 % 1011,4 hPa 0,0 l/m 3,0 km/h (1 Bft) S 190 0 min 0,000 mm 0,0 UV-I 0 W/m -0,5 C -0,2 C 6,4 km/h (2 Bft) 100,00 %
09.11.2016 03:00 -0,2 C 98 % 1011,4 hPa 0,0 l/m 3,1 km/h (1 Bft) S 177 0 min 0,000 mm 0,0 UV-I 0 W/m -0,5 C -0,2 C 8,0 km/h (2 Bft) 100,00 %
09.11.2016 03:02 -0,2 C 98 % 1011,3 hPa 0,0 l/m 4,7 km/h (1 Bft) S 173 0 min 0,000 mm 0,0 UV-I 0 W/m -0,5 C -0,2 C 8,0 km/h (2 Bft) 98,11 %
09.11.2016 03:04 -0,2 C 98 % 1011,4 hPa 0,0 l/m 2,8 km/h (1 Bft) S-SO 165 0 min 0,000 mm 0,0 UV-I 0 W/m -0,5 C -0,2 C 4,8 km/h (1 Bft) 100,00 %
09.11.2016 03:06 -0,2 C 98 % 1011,3 hPa 0,0 l/m 4,2 km/h (1 Bft) S 189 0 min 0,000 mm 0,0 UV-I 0 W/m -0,5 C -0,2 C 8,0 km/h (2 Bft) 100,00 %
09.11.2016 03:08 -0,2 C 98 % 1011,3 hPa 0,0 l/m 2,4 km/h (1 Bft) S-SO 164 0 min 0,000 mm 0,0 UV-I 0 W/m -0,5 C -0,2 C 6,4 km/h (2 Bft) 100,00 %
09.11.2016 03:10 -0,3 C 98 % 1011,3 hPa 0,0 l/m 3,3 km/h (1 Bft) S 172 0 min 0,000 mm 0,0 UV-I 0 W/m -0,6 C -0,3 C 6,4 km/h (2 Bft) 100,00 %
09.11.2016 03:12 -0,3 C 98 % 1011,3 hPa 0,0 l/m 2,4 km/h (1 Bft) S 175 0 min 0,000 mm 0,0 UV-I 0 W/m -0,6 C -0,3 C 4,8 km/h (1 Bft) 100,00 %
09.11.2016 03:14 -0,3 C 98 % 1011,3 hPa 0,0 l/m 4,3 km/h (1 Bft) S 172 0 min 0,000 mm 0,0 UV-I 0 W/m -0,6 C -0,3 C 8,0 km/h (2 Bft) 100,00 %
09.11.2016 03:16 -0,3 C 98 % 1011,3 hPa 0,0 l/m 3,0 km/h (1 Bft) S 186 0 min 0,000 mm 0,0 UV-I 0 W/m -0,6 C -0,3 C 6,4 km/h (2 Bft) 100,00 %
09.11.2016 03:18 -0,3 C 98 % 1011,3 hPa 0,0 l/m 3,6 km/h (1 Bft) S-SO 162 0 min 0,000 mm 0,0 UV-I 0 W/m -0,6 C -0,3 C 9,7 km/h (2 Bft) 100,00 %
09.11.2016 03:20 -0,3 C 98 % 1011,3 hPa 0,0 l/m 2,9 km/h (1 Bft) S 182 0 min 0,000 mm 0,0 UV-I 0 W/m -0,6 C -0,3 C 6,4 km/h (2 Bft) 97,44 %
09.11.2016 03:22 -0,3 C 98 % 1011,2 hPa 0,0 l/m 4,6 km/h (1 Bft) S 184 0 min 0,000 mm 0,0 UV-I 0 W/m -0,6 C -0,3 C 9,7 km/h (2 Bft) 98,11 %
09.11.2016 03:24 -0,3 C 98 % 1011,2 hPa 0,0 l/m 2,8 km/h (1 Bft) S 184 0 min 0,000 mm 0,0 UV-I 0 W/m -0,6 C -0,3 C 4,8 km/h (1 Bft) 97,87 %
09.11.2016 03:26 -0,4 C 98 % 1011,2 hPa 0,0 l/m 2,0 km/h (1 Bft) S-SW 194 0 min 0,000 mm 0,0 UV-I 0 W/m -0,7 C -0,4 C 4,8 km/h (1 Bft) 100,00 %
09.11.2016 03:28 -0,4 C 98 % 1011,3 hPa 0,0 l/m 3,4 km/h (1 Bft) S 190 0 min 0,000 mm 0,0 UV-I 0 W/m -0,7 C -0,4 C 6,4 km/h (2 Bft) 100,00 %
09.11.2016 03:30 -0,4 C 98 % 1011,3 hPa 0,0 l/m 5,0 km/h (1 Bft) S 175 0 min 0,000 mm 0,0 UV-I 0 W/m -0,7 C -0,4 C 9,7 km/h (2 Bft) 100,00 %
09.11.2016 03:32 -0,4 C 98 % 1011,3 hPa 0,0 l/m 5,3 km/h (1 Bft) S 190 0 min 0,000 mm 0,0 UV-I 0 W/m -0,7 C -0,4 C 8,0 km/h (2 Bft) 98,00 %
09.11.2016 03:34 -0,4 C 98 % 1011,3 hPa 0,0 l/m 3,2 km/h (1 Bft) S 190 0 min 0,000 mm 0,0 UV-I 0 W/m -0,7 C -0,4 C 4,8 km/h (1 Bft) 100,00 %
09.11.2016 03:36 -0,4 C 98 % 1011,2 hPa 0,0 l/m 2,6 km/h (1 Bft) S 180 0 min 0,000 mm 0,0 UV-I 0 W/m -0,7 C -0,4 C 4,8 km/h (1 Bft) 100,00 %
09.11.2016 03:38 -0,4 C 98 % 1011,2 hPa 0,0 l/m 3,1 km/h (1 Bft) S 180 0 min 0,000 mm 0,0 UV-I 0 W/m -0,7 C -0,4 C 6,4 km/h (2 Bft) 100,00 %
09.11.2016 03:40 -0,4 C 98 % 1011,2 hPa 0,0 l/m 4,3 km/h (1 Bft) S-SO 161 0 min 0,000 mm 0,0 UV-I 0 W/m -0,7 C -0,4 C 6,4 km/h (2 Bft) 100,00 %
09.11.2016 03:42 -0,4 C 98 % 1011,2 hPa 0,0 l/m 3,5 km/h (1 Bft) S-SO 156 0 min 0,000 mm 0,0 UV-I 0 W/m -0,7 C -0,4 C 6,4 km/h (2 Bft) 97,87 %
09.11.2016 03:44 -0,4 C 98 % 1011,2 hPa 0,0 l/m 2,1 km/h (1 Bft) S-SO 157 0 min 0,000 mm 0,0 UV-I 0 W/m -0,7 C -0,4 C 4,8 km/h (1 Bft) 97,87 %
09.11.2016 03:46 -0,4 C 98 % 1011,1 hPa 0,0 l/m 1,4 km/h (1 Bft) S-SO 157 0 min 0,000 mm 0,0 UV-I 0 W/m -0,7 C -0,4 C 3,2 km/h (1 Bft) 97,56 %
09.11.2016 03:48 -0,4 C 98 % 1011,1 hPa 0,0 l/m 1,6 km/h (1 Bft) S-SO 160 0 min 0,000 mm 0,0 UV-I 0 W/m -0,7 C -0,4 C 6,4 km/h (2 Bft) 96,23 %
09.11.2016 03:50 -0,4 C 98 % 1011,1 hPa 0,0 l/m 2,5 km/h (1 Bft) S-SO 168 0 min 0,000 mm 0,0 UV-I 0 W/m -0,7 C -0,4 C 4,8 km/h (1 Bft) 97,37 %
09.11.2016 03:52 -0,4 C 98 % 1011,0 hPa 0,0 l/m 2,5 km/h (1 Bft) S-SO 167 0 min 0,000 mm 0,0 UV-I 0 W/m -0,7 C -0,4 C 6,4 km/h (2 Bft) 98,21 %
09.11.2016 03:54 -0,4 C 98 % 1011,0 hPa 0,0 l/m 1,2 km/h (1 Bft) S-SO 167 0 min 0,000 mm 0,0 UV-I 0 W/m -0,7 C -0,4 C 4,8 km/h (1 Bft) 97,87 %
09.11.2016 03:56 -0,5 C 98 % 1011,0 hPa 0,0 l/m 1,6 km/h (1 Bft) S-SO 167 0 min 0,000 mm 0,0 UV-I 0 W/m -0,8 C -0,5 C 4,8 km/h (1 Bft) 95,12 %
09.11.2016 03:58 -0,5 C 98 % 1011,0 hPa 0,0 l/m 1,6 km/h (1 Bft) S-SO 167 0 min 0,000 mm 0,0 UV-I 0 W/m -0,8 C -0,5 C 4,8 km/h (1 Bft) 97,92 %
09.11.2016 04:00 -0,6 C 98 % 1010,9 hPa 0,0 l/m 1,8 km/h (1 Bft) S-SO 162 0 min 0,000 mm 0,0 UV-I 0 W/m -0,9 C -0,6 C 6,4 km/h (2 Bft) 95,74 %
09.11.2016 04:02 -0,6 C 98 % 1010,9 hPa 0,0 l/m 2,1 km/h (1 Bft) S-SO 160 0 min 0,000 mm 0,0 UV-I 0 W/m -0,9 C -0,6 C 3,2 km/h (1 Bft) 100,00 %
09.11.2016 04:04 -0,6 C 98 % 1011,0 hPa 0,0 l/m 2,3 km/h (1 Bft) S-SO 165 0 min 0,000 mm 0,0 UV-I 0 W/m -0,9 C -0,6 C 6,4 km/h (2 Bft) 94,64 %
09.11.2016 04:06 -0,6 C 98 % 1011,0 hPa 0,0 l/m 2,8 km/h (1 Bft) S 178 0 min 0,000 mm 0,0 UV-I 0 W/m -0,9 C -0,6 C 6,4 km/h (2 Bft) 97,37 %
09.11.2016 04:08 -0,6 C 98 % 1011,0 hPa 0,0 l/m 2,9 km/h (1 Bft) S 186 0 min 0,000 mm 0,0 UV-I 0 W/m -0,9 C -0,6 C 6,4 km/h (2 Bft) 98,00 %
09.11.2016 04:10 -0,6 C 98 % 1011,0 hPa 0,0 l/m 3,1 km/h (1 Bft) S-SW 192 0 min 0,000 mm 0,0 UV-I 0 W/m -0,9 C -0,6 C 6,4 km/h (2 Bft) 98,00 %
09.11.2016 04:12 -0,6 C 98 % 1011,0 hPa 0,0 l/m 3,0 km/h (1 Bft) S-SW 195 0 min 0,000 mm 0,0 UV-I 0 W/m -0,9 C -0,6 C 4,8 km/h (1 Bft) 95,74 %
09.11.2016 04:14 -0,6 C 98 % 1010,9 hPa 0,0 l/m 2,2 km/h (1 Bft) S 179 0 min 0,000 mm 0,0 UV-I 0 W/m -0,9 C -0,6 C 4,8 km/h (1 Bft) 98,00 %
09.11.2016 04:16 -0,6 C 98 % 1010,9 hPa 0,0 l/m 2,4 km/h (1 Bft) SW 216 0 min 0,000 mm 0,0 UV-I 0 W/m -0,9 C -0,6 C 6,4 km/h (2 Bft) 95,12 %
09.11.2016 04:18 -0,6 C 98 % 1011,0 hPa 0,0 l/m 2,7 km/h (1 Bft) S-SW 192 0 min 0,000 mm 0,0 UV-I 0 W/m -0,9 C -0,6 C 4,8 km/h (1 Bft) 95,74 %
09.11.2016 04:20 -0,6 C 98 % 1010,9 hPa 0,0 l/m 1,7 km/h (1 Bft) S 189 0 min 0,000 mm 0,0 UV-I 0 W/m -0,9 C -0,6 C 4,8 km/h (1 Bft) 97,87 %
09.11.2016 04:22 -0,6 C 98 % 1010,9 hPa 0,0 l/m 2,4 km/h (1 Bft) S-SO 157 0 min 0,000 mm 0,0 UV-I 0 W/m -0,9 C -0,6 C 4,8 km/h (1 Bft) 100,00 %
09.11.2016 04:24 -0,6 C 98 % 1010,8 hPa 0,0 l/m 3,1 km/h (1 Bft) S 180 0 min 0,000 mm 0,0 UV-I 0 W/m -0,9 C -0,6 C 6,4 km/h (2 Bft) 97,87 %
09.11.2016 04:26 -0,5 C 98 % 1010,8 hPa 0,0 l/m 2,5 km/h (1 Bft) S 184 0 min 0,000 mm 0,0 UV-I 0 W/m -0,8 C -0,5 C 4,8 km/h (1 Bft) 100,00 %
09.11.2016 04:28 -0,5 C 98 % 1010,8 hPa 0,0 l/m 3,1 km/h (1 Bft) S 184 0 min 0,000 mm 0,0 UV-I 0 W/m -0,8 C -0,5 C 6,4 km/h (2 Bft) 100,00 %
09.11.2016 04:30 -0,4 C 98 % 1010,8 hPa 0,0 l/m 3,4 km/h (1 Bft) S-SW 200 0 min 0,000 mm 0,0 UV-I 0 W/m -0,7 C -0,4 C 4,8 km/h (1 Bft) 98,00 %
09.11.2016 04:32 -0,4 C 98 % 1010,8 hPa 0,0 l/m 4,0 km/h (1 Bft) S-SW 197 0 min 0,000 mm 0,0 UV-I 0 W/m -0,7 C -0,4 C 6,4 km/h (2 Bft) 100,00 %
09.11.2016 04:34 -0,4 C 98 % 1010,8 hPa 0,0 l/m 1,3 km/h (1 Bft) S-SW 197 0 min 0,000 mm 0,0 UV-I 0 W/m -0,7 C -0,4 C 3,2 km/h (1 Bft) 100,00 %
09.11.2016 04:36 -0,4 C 98 % 1010,8 hPa 0,0 l/m 2,7 km/h (1 Bft) S-SW 197 0 min 0,000 mm 0,0 UV-I 0 W/m -0,7 C -0,4 C 6,4 km/h (2 Bft) 100,00 %
09.11.2016 04:38 -0,4 C 98 % 1010,8 hPa 0,0 l/m 3,4 km/h (1 Bft) S 173 0 min 0,000 mm 0,0 UV-I 0 W/m -0,7 C -0,4 C 8,0 km/h (2 Bft) 100,00 %
09.11.2016 04:40 -0,4 C 98 % 1010,9 hPa 0,0 l/m 2,0 km/h (1 Bft) S 173 0 min 0,000 mm 0,0 UV-I 0 W/m -0,7 C -0,4 C 4,8 km/h (1 Bft) 98,00 %
09.11.2016 04:42 -0,4 C 98 % 1010,8 hPa 0,0 l/m 1,4 km/h (1 Bft) S 173 0 min 0,000 mm 0,0 UV-I 0 W/m -0,7 C -0,4 C 3,2 km/h (1 Bft) 100,00 %
09.11.2016 04:44 -0,4 C 98 % 1010,8 hPa 0,0 l/m 1,3 km/h (1 Bft) S 173 0 min 0,000 mm 0,0 UV-I 0 W/m -0,7 C -0,4 C 3,2 km/h (1 Bft) 100,00 %
09.11.2016 04:46 -0,4 C 98 % 1010,8 hPa 0,0 l/m 2,3 km/h (1 Bft) S-SO 163 0 min 0,000 mm 0,0 UV-I 0 W/m -0,7 C -0,4 C 6,4 km/h (2 Bft) 100,00 %
09.11.2016 04:48 -0,4 C 98 % 1010,8 hPa 0,0 l/m 1,3 km/h (1 Bft) S-SO 163 0 min 0,000 mm 0,0 UV-I 0 W/m -0,7 C -0,4 C 6,4 km/h (2 Bft) 100,00 %
09.11.2016 04:50 -0,3 C 98 % 1010,8 hPa 0,0 l/m 1,6 km/h (1 Bft) S-SO 163 0 min 0,000 mm 0,0 UV-I 0 W/m -0,6 C -0,3 C 6,4 km/h (2 Bft) 98,00 %
09.11.2016 04:52 -0,3 C 98 % 1010,7 hPa 0,0 l/m 0,8 km/h (0 Bft) S-SO 163 0 min 0,000 mm 0,0 UV-I 0 W/m -0,6 C -0,3 C 3,2 km/h (1 Bft) 100,00 %
09.11.2016 04:54 -0,3 C 98 % 1010,7 hPa 0,0 l/m 2,2 km/h (1 Bft) S-SO 163 0 min 0,000 mm 0,0 UV-I 0 W/m -0,6 C -0,3 C 6,4 km/h (2 Bft) 100,00 %
09.11.2016 04:56 -0,3 C 98 % 1010,7 hPa 0,0 l/m 1,6 km/h (1 Bft) S-SO 163 0 min 0,000 mm 0,0 UV-I 0 W/m -0,6 C -0,3 C 3,2 km/h (1 Bft) 100,00 %
09.11.2016 04:58 -0,3 C 98 % 1010,7 hPa 0,0 l/m 1,0 km/h (0 Bft) S-SO 163 0 min 0,000 mm 0,0 UV-I 0 W/m -0,6 C -0,3 C 1,6 km/h (1 Bft) 100,00 %
09.11.2016 05:00 -0,3 C 98 % 1010,6 hPa 0,0 l/m 1,6 km/h (1 Bft) S-SO 163 0 min 0,000 mm 0,0 UV-I 0 W/m -0,6 C -0,3 C 3,2 km/h (1 Bft) 98,00 %
09.11.2016 05:02 -0,3 C 98 % 1010,6 hPa 0,0 l/m 0,9 km/h (0 Bft) S-SO 163 0 min 0,000 mm 0,0 UV-I 0 W/m -0,6 C -0,3 C 3,2 km/h (1 Bft) 100,00 %
09.11.2016 05:04 -0,3 C 98 % 1010,7 hPa 0,0 l/m 0,5 km/h (0 Bft) S-SO 163 0 min 0,000 mm 0,0 UV-I 0 W/m -0,6 C -0,3 C 3,2 km/h (1 Bft) 100,00 %
09.11.2016 05:06 -0,3 C 98 % 1010,7 hPa 0,0 l/m 2,8 km/h (1 Bft) S-SO 163 0 min 0,000 mm 0,0 UV-I 0 W/m -0,6 C -0,3 C 6,4 km/h (2 Bft) 98,11 %
09.11.2016 05:08 -0,3 C 98 % 1010,7 hPa 0,0 l/m 2,5 km/h (1 Bft) S-SO 163 0 min 0,000 mm 0,0 UV-I 0 W/m -0,6 C -0,3 C 3,2 km/h (1 Bft) 100,00 %
09.11.2016 05:10 -0,3 C 98 % 1010,7 hPa 0,0 l/m 1,6 km/h (1 Bft) S-SO 163 0 min 0,000 mm 0,0 UV-I 0 W/m -0,6 C -0,3 C 3,2 km/h (1 Bft) 100,00 %
09.11.2016 05:12 -0,3 C 98 % 1010,7 hPa 0,0 l/m 1,4 km/h (1 Bft) S-SO 163 0 min 0,000 mm 0,0 UV-I 0 W/m -0,6 C -0,3 C 3,2 km/h (1 Bft) 100,00 %
09.11.2016 05:14 -0,3 C 98 % 1010,7 hPa 0,0 l/m 1,3 km/h (1 Bft) S-SO 163 0 min 0,000 mm 0,0 UV-I 0 W/m -0,6 C -0,3 C 3,2 km/h (1 Bft) 100,00 %
09.11.2016 05:16 -0,3 C 98 % 1010,7 hPa 0,0 l/m 1,3 km/h (1 Bft) S-SO 163 0 min 0,000 mm 0,0 UV-I 0 W/m -0,6 C -0,3 C 3,2 km/h (1 Bft) 100,00 %
09.11.2016 05:18 -0,2 C 98 % 1010,7 hPa 0,0 l/m 1,8 km/h (1 Bft) S-SO 159 0 min 0,000 mm 0,0 UV-I 0 W/m -0,5 C -0,2 C 6,4 km/h (2 Bft) 100,00 %
09.11.2016 05:20 -0,2 C 98 % 1010,7 hPa 0,0 l/m 1,2 km/h (1 Bft) S-SO 159 0 min 0,000 mm 0,0 UV-I 0 W/m -0,5 C -0,2 C 3,2 km/h (1 Bft) 100,00 %
09.11.2016 05:22 -0,2 C 98 % 1010,6 hPa 0,0 l/m 1,6 km/h (1 Bft) S-SO 159 0 min 0,000 mm 0,0 UV-I 0 W/m -0,5 C -0,2 C 3,2 km/h (1 Bft) 98,00 %
09.11.2016 05:24 -0,2 C 98 % 1010,7 hPa 0,0 l/m 2,7 km/h (1 Bft) S-SO 161 0 min 0,000 mm 0,0 UV-I 0 W/m -0,5 C -0,2 C 6,4 km/h (2 Bft) 100,00 %
09.11.2016 05:26 -0,2 C 98 % 1010,6 hPa 0,0 l/m 2,1 km/h (1 Bft) S-SO 161 0 min 0,000 mm 0,0 UV-I 0 W/m -0,5 C -0,2 C 6,4 km/h (2 Bft) 97,87 %
09.11.2016 05:28 -0,2 C 98 % 1010,6 hPa 0,0 l/m 2,3 km/h (1 Bft) S-SO 161 0 min 0,000 mm 0,0 UV-I 0 W/m -0,5 C -0,2 C 3,2 km/h (1 Bft) 100,00 %
09.11.2016 05:30 -0,2 C 98 % 1010,6 hPa 0,0 l/m 3,0 km/h (1 Bft) S-SO 161 0 min 0,000 mm 0,0 UV-I 0 W/m -0,5 C -0,2 C 3,2 km/h (1 Bft) 98,00 %
09.11.2016 05:32 -0,1 C 98 % 1010,5 hPa 0,0 l/m 2,9 km/h (1 Bft) S-SO 161 0 min 0,000 mm 0,0 UV-I 0 W/m -0,4 C -0,1 C 6,4 km/h (2 Bft) 100,00 %
09.11.2016 05:34 -0,1 C 98 % 1010,5 hPa 0,0 l/m 1,5 km/h (1 Bft) S-SO 161 0 min 0,000 mm 0,0 UV-I 0 W/m -0,4 C -0,1 C 3,2 km/h (1 Bft) 98,11 %
09.11.2016 05:36 -0,1 C 98 % 1010,5 hPa 0,0 l/m 1,6 km/h (1 Bft) S-SO 161 0 min 0,000 mm 0,0 UV-I 0 W/m -0,4 C -0,1 C 3,2 km/h (1 Bft) 100,00 %
09.11.2016 05:38 -0,2 C 98 % 1010,5 hPa 0,0 l/m 2,1 km/h (1 Bft) S-SO 161 0 min 0,000 mm 0,0 UV-I 0 W/m -0,5 C -0,2 C 3,2 km/h (1 Bft) 100,00 %
09.11.2016 05:40 -0,1 C 98 % 1010,5 hPa 0,0 l/m 2,1 km/h (1 Bft) S-SO 161 0 min 0,000 mm 0,0 UV-I 0 W/m -0,4 C -0,1 C 3,2 km/h (1 Bft) 100,00 %
09.11.2016 05:42 -0,1 C 98 % 1010,5 hPa 0,0 l/m 2,1 km/h (1 Bft) S-SO 161 0 min 0,000 mm 0,0 UV-I 0 W/m -0,4 C -0,1 C 3,2 km/h (1 Bft) 100,00 %
09.11.2016 05:44 -0,1 C 98 % 1010,5 hPa 0,0 l/m 2,4 km/h (1 Bft) S-SO 161 0 min 0,000 mm 0,0 UV-I 0 W/m -0,4 C -0,1 C 3,2 km/h (1 Bft) 100,00 %
09.11.2016 05:46 -0,1 C 98 % 1010,5 hPa 0,0 l/m 2,7 km/h (1 Bft) S-SO 161 0 min 0,000 mm 0,0 UV-I 0 W/m -0,4 C -0,1 C 6,4 km/h (2 Bft) 93,62 %
09.11.2016 05:48 -0,1 C 98 % 1010,5 hPa 0,0 l/m 1,5 km/h (1 Bft) S-SO 161 0 min 0,000 mm 0,0 UV-I 0 W/m -0,4 C -0,1 C 3,2 km/h (1 Bft) 98,00 %
09.11.2016 05:50 -0,1 C 98 % 1010,5 hPa 0,0 l/m 0,4 km/h (0 Bft) S-SO 161 0 min 0,000 mm 0,0 UV-I 0 W/m -0,4 C -0,1 C 1,6 km/h (1 Bft) 97,56 %
09.11.2016 05:52 -0,1 C 98 % 1010,5 hPa 0,0 l/m 0,1 km/h (0 Bft) S-SO 161 0 min 0,000 mm 0,0 UV-I 0 W/m -0,4 C -0,1 C 1,6 km/h (1 Bft) 98,00 %
09.11.2016 05:54 -0,1 C 98 % 1010,5 hPa 0,0 l/m 0,0 km/h (0 Bft) S-SO 161 0 min 0,000 mm 0,0 UV-I 0 W/m -0,4 C -0,1 C 0,0 km/h (0 Bft) 96,00 %
09.11.2016 05:56 -0,1 C 98 % 1010,5 hPa 0,0 l/m 0,1 km/h (0 Bft) S-SO 161 0 min 0,000 mm 0,0 UV-I 0 W/m -0,4 C -0,1 C 1,6 km/h (1 Bft) 95,74 %
09.11.2016 05:58 -0,1 C 98 % 1010,5 hPa 0,0 l/m 1,0 km/h (0 Bft) S-SO 161 0 min 0,000 mm 0,0 UV-I 0 W/m -0,4 C -0,1 C 3,2 km/h (1 Bft) 97,44 %
09.11.2016 06:00 -0,1 C 98 % 1010,5 hPa 0,0 l/m 2,0 km/h (1 Bft) S-SO 161 0 min 0,000 mm 0,0 UV-I 0 W/m -0,4 C -0,1 C 3,2 km/h (1 Bft) 97,87 %
09.11.2016 06:02 0,0 C 98 % 1010,4 hPa 0,0 l/m 2,3 km/h (1 Bft) S-SO 161 0 min 0,000 mm 0,0 UV-I 0 W/m -0,3 C 0,0 C 3,2 km/h (1 Bft) 94,74 %
09.11.2016 06:04 0,0 C 98 % 1010,4 hPa 0,0 l/m 1,3 km/h (1 Bft) S-SO 161 0 min 0,000 mm 0,0 UV-I 0 W/m -0,3 C 0,0 C 3,2 km/h (1 Bft) 94,64 %
09.11.2016 06:06 0,0 C 98 % 1010,5 hPa 0,0 l/m 0,1 km/h (0 Bft) S-SO 161 0 min 0,000 mm 0,0 UV-I 0 W/m -0,3 C 0,0 C 1,6 km/h (1 Bft) 95,74 %
09.11.2016 06:08 0,1 C 98 % 1010,5 hPa 0,0 l/m 0,0 km/h (0 Bft) S-SO 161 0 min 0,000 mm 0,0 UV-I 0 W/m -0,2 C 0,1 C 1,6 km/h (1 Bft) 98,00 %
09.11.2016 06:10 0,1 C 98 % 1010,5 hPa 0,0 l/m 1,6 km/h (1 Bft) S-SO 161 0 min 0,000 mm 0,0 UV-I 0 W/m -0,2 C 0,1 C 3,2 km/h (1 Bft) 96,23 %
09.11.2016 06:12 0,1 C 98 % 1010,4 hPa 0,0 l/m 2,1 km/h (1 Bft) S-SO 161 0 min 0,000 mm 0,0 UV-I 0 W/m -0,2 C 0,1 C 3,2 km/h (1 Bft) 97,14 %
09.11.2016 06:14 0,2 C 98 % 1010,4 hPa 0,0 l/m 1,6 km/h (1 Bft) S-SO 161 0 min 0,000 mm 0,0 UV-I 0 W/m -0,1 C 0,2 C 3,2 km/h (1 Bft) 97,87 %
09.11.2016 06:16 0,1 C 98 % 1010,4 hPa 0,0 l/m 0,7 km/h (0 Bft) S-SO 161 0 min 0,000 mm 0,0 UV-I 0 W/m -0,2 C 0,1 C 3,2 km/h (1 Bft) 98,21 %
09.11.2016 06:18 0,2 C 98 % 1010,4 hPa 0,0 l/m 0,9 km/h (0 Bft) S-SO 161 0 min 0,000 mm 0,0 UV-I 0 W/m -0,1 C 0,2 C 1,6 km/h (1 Bft) 97,73 %
09.11.2016 06:20 0,2 C 98 % 1010,4 hPa 0,0 l/m 0,0 km/h (0 Bft) S-SO 161 0 min 0,000 mm 0,0 UV-I 0 W/m -0,1 C 0,2 C 0,0 km/h (0 Bft) 95,74 %
09.11.2016 06:22 0,2 C 98 % 1010,4 hPa 0,0 l/m 0,0 km/h (0 Bft) S-SO 161 0 min 0,000 mm 0,0 UV-I 0 W/m -0,1 C 0,2 C 0,0 km/h (0 Bft) 100,00 %
09.11.2016 06:24 0,2 C 98 % 1010,3 hPa 0,0 l/m 0,0 km/h (0 Bft) S-SO 161 0 min 0,000 mm 0,0 UV-I 0 W/m -0,1 C 0,2 C 0,0 km/h (0 Bft) 97,87 %
09.11.2016 06:26 0,2 C 98 % 1010,3 hPa 0,0 l/m 0,0 km/h (0 Bft) S-SO 161 0 min 0,000 mm 0,0 UV-I 0 W/m -0,1 C 0,2 C 0,0 km/h (0 Bft) 97,87 %
09.11.2016 06:28 0,2 C 98 % 1010,3 hPa 0,0 l/m 0,6 km/h (0 Bft) S-SO 161 0 min 0,000 mm 0,0 UV-I 0 W/m -0,1 C 0,2 C 1,6 km/h (1 Bft) 97,37 %
09.11.2016 06:30 0,2 C 97 % 1010,3 hPa 0,0 l/m 0,0 km/h (0 Bft) S-SO 161 0 min 0,000 mm 0,0 UV-I 0 W/m -0,2 C 0,2 C 0,0 km/h (0 Bft) 95,74 %
09.11.2016 06:32 0,3 C 98 % 1010,3 hPa 0,0 l/m 0,0 km/h (0 Bft) S-SO 161 0 min 0,000 mm 0,0 UV-I 0 W/m 0,0 C 0,3 C 0,0 km/h (0 Bft) 100,00 %
09.11.2016 06:34 0,3 C 98 % 1010,3 hPa 0,0 l/m 0,0 km/h (0 Bft) S-SO 161 0 min 0,000 mm 0,0 UV-I 0 W/m 0,0 C 0,3 C 0,0 km/h (0 Bft) 100,00 %
09.11.2016 06:36 0,3 C 98 % 1010,2 hPa 0,0 l/m 0,0 km/h (0 Bft) S-SO 161 0 min 0,000 mm 0,0 UV-I 0 W/m 0,0 C 0,3 C 0,0 km/h (0 Bft) 100,00 %
09.11.2016 06:38 0,3 C 98 % 1010,2 hPa 0,0 l/m 0,0 km/h (0 Bft) S-SO 161 0 min 0,000 mm 0,0 UV-I 0 W/m 0,0 C 0,3 C 0,0 km/h (0 Bft) 100,00 %
09.11.2016 06:40 0,3 C 98 % 1010,2 hPa 0,0 l/m 1,0 km/h (0 Bft) S-SO 161 0 min 0,000 mm 0,0 UV-I 0 W/m 0,0 C 0,3 C 1,6 km/h (1 Bft) 100,00 %
09.11.2016 06:42 0,3 C 98 % 1010,2 hPa 0,0 l/m 0,2 km/h (0 Bft) S-SO 161 0 min 0,000 mm 0,0 UV-I 0 W/m 0,0 C 0,3 C 1,6 km/h (1 Bft) 100,00 %
09.11.2016 06:44 0,3 C 98 % 1010,2 hPa 0,0 l/m 0,0 km/h (0 Bft) S-SO 161 0 min 0,000 mm 0,0 UV-I 0 W/m 0,0 C 0,3 C 0,0 km/h (0 Bft) 100,00 %
09.11.2016 06:46 0,3 C 98 % 1010,2 hPa 0,0 l/m 0,5 km/h (0 Bft) S-SO 161 0 min 0,000 mm 0,0 UV-I 0 W/m 0,0 C 0,3 C 1,6 km/h (1 Bft) 98,31 %
09.11.2016 06:48 0,3 C 98 % 1010,2 hPa 0,0 l/m 2,4 km/h (1 Bft) S-SO 161 0 min 0,000 mm 0,0 UV-I 0 W/m 0,0 C 0,3 C 3,2 km/h (1 Bft) 100,00 %
09.11.2016 06:50 0,3 C 98 % 1010,2 hPa 0,0 l/m 3,3 km/h (1 Bft) SO 141 0 min 0,000 mm 0,0 UV-I 0 W/m 0,0 C 0,3 C 4,8 km/h (1 Bft) 100,00 %
09.11.2016 06:52 0,3 C 98 % 1010,2 hPa 0,0 l/m 4,2 km/h (1 Bft) O-NO 71 0 min 0,000 mm 0,0 UV-I 0 W/m 0,0 C 0,3 C 4,8 km/h (1 Bft) 100,00 %
09.11.2016 06:54 0,3 C 98 % 1010,2 hPa 0,0 l/m 3,8 km/h (1 Bft) O-NO 71 0 min 0,000 mm 0,0 UV-I 0 W/m 0,0 C 0,3 C 4,8 km/h (1 Bft) 98,00 %
09.11.2016 06:56 0,3 C 98 % 1010,2 hPa 0,0 l/m 3,4 km/h (1 Bft) O-NO 67 0 min 0,000 mm 0,0 UV-I 4 W/m 0,0 C 0,3 C 4,8 km/h (1 Bft) 100,00 %
09.11.2016 06:58 0,3 C 98 % 1010,2 hPa 0,0 l/m 3,2 km/h (1 Bft) O-NO 65 0 min 0,000 mm 0,0 UV-I 5 W/m 0,0 C 0,3 C 4,8 km/h (1 Bft) 98,00 %
09.11.2016 07:00 0,4 C 98 % 1010,2 hPa 0,0 l/m 3,2 km/h (1 Bft) O-NO 65 0 min 0,000 mm 0,0 UV-I 5 W/m 0,1 C 0,4 C 4,8 km/h (1 Bft) 100,00 %
09.11.2016 07:02 0,3 C 98 % 1010,3 hPa 0,0 l/m 3,2 km/h (1 Bft) O-NO 65 0 min 0,000 mm 0,0 UV-I 5 W/m 0,0 C 0,3 C 4,8 km/h (1 Bft) 97,56 %
09.11.2016 07:04 0,3 C 98 % 1010,3 hPa 0,0 l/m 1,9 km/h (1 Bft) O-NO 65 0 min 0,000 mm 0,0 UV-I 5 W/m 0,0 C 0,3 C 3,2 km/h (1 Bft) 96,23 %
09.11.2016 07:06 0,3 C 98 % 1010,3 hPa 0,0 l/m 1,9 km/h (1 Bft) O-NO 65 0 min 0,000 mm 0,0 UV-I 5 W/m 0,0 C 0,3 C 3,2 km/h (1 Bft) 100,00 %
09.11.2016 07:08 0,3 C 98 % 1010,2 hPa 0,0 l/m 2,0 km/h (1 Bft) O-NO 65 0 min 0,000 mm 0,0 UV-I 5 W/m 0,0 C 0,3 C 3,2 km/h (1 Bft) 100,00 %
09.11.2016 07:10 0,4 C 98 % 1010,2 hPa 0,0 l/m 1,9 km/h (1 Bft) O-NO 65 0 min 0,000 mm 0,0 UV-I 5 W/m 0,1 C 0,4 C 3,2 km/h (1 Bft) 100,00 %
09.11.2016 07:12 0,4 C 98 % 1010,3 hPa 0,0 l/m 1,5 km/h (1 Bft) O-NO 65 0 min 0,000 mm 0,0 UV-I 7 W/m 0,1 C 0,4 C 3,2 km/h (1 Bft) 97,87 %
09.11.2016 07:14 0,4 C 98 % 1010,2 hPa 0,0 l/m 0,2 km/h (0 Bft) O-NO 65 0 min 0,000 mm 0,0 UV-I 8 W/m 0,1 C 0,4 C 1,6 km/h (1 Bft) 100,00 %
09.11.2016 07:16 0,4 C 98 % 1010,3 hPa 0,0 l/m 0,6 km/h (0 Bft) O-NO 65 0 min 0,000 mm 0,0 UV-I 10 W/m 0,1 C 0,4 C 1,6 km/h (1 Bft) 100,00 %
09.11.2016 07:18 0,4 C 98 % 1010,3 hPa 0,0 l/m 1,4 km/h (1 Bft) O-NO 65 0 min 0,000 mm 0,0 UV-I 11 W/m 0,1 C 0,4 C 1,6 km/h (1 Bft) 100,00 %
09.11.2016 07:20 0,4 C 98 % 1010,3 hPa 0,0 l/m 1,5 km/h (1 Bft) O-NO 65 0 min 0,000 mm 0,0 UV-I 12 W/m 0,1 C 0,4 C 3,2 km/h (1 Bft) 100,00 %
09.11.2016 07:22 0,4 C 98 % 1010,4 hPa 0,0 l/m 0,2 km/h (0 Bft) O-NO 65 0 min 0,000 mm 0,0 UV-I 12 W/m 0,1 C 0,4 C 1,6 km/h (1 Bft) 100,00 %
09.11.2016 07:24 0,4 C 97 % 1010,4 hPa 0,0 l/m 0,0 km/h (0 Bft) O-NO 65 0 min 0,000 mm 0,0 UV-I 11 W/m -0,0 C 0,4 C 1,6 km/h (1 Bft) 100,00 %
09.11.2016 07:26 0,4 C 97 % 1010,4 hPa 0,0 l/m 0,7 km/h (0 Bft) O-NO 65 0 min 0,000 mm 0,0 UV-I 11 W/m -0,0 C 0,4 C 1,6 km/h (1 Bft) 100,00 %
09.11.2016 07:28 0,5 C 98 % 1010,4 hPa 0,0 l/m 2,0 km/h (1 Bft) O-NO 65 0 min 0,000 mm 0,0 UV-I 13 W/m 0,2 C 0,5 C 3,2 km/h (1 Bft) 98,00 %
09.11.2016 07:30 0,5 C 98 % 1010,4 hPa 0,0 l/m 1,0 km/h (0 Bft) O-NO 65 0 min 0,000 mm 0,0 UV-I 19 W/m 0,2 C 0,5 C 1,6 km/h (1 Bft) 100,00 %
09.11.2016 07:32 0,5 C 98 % 1010,3 hPa 0,0 l/m 0,1 km/h (0 Bft) O-NO 65 0 min 0,000 mm 0,0 UV-I 26 W/m 0,2 C 0,5 C 1,6 km/h (1 Bft) 100,00 %
09.11.2016 07:34 0,4 C 97 % 1010,3 hPa 0,0 l/m 1,2 km/h (1 Bft) O-NO 65 0 min 0,000 mm 0,0 UV-I 33 W/m -0,0 C 0,4 C 3,2 km/h (1 Bft) 100,00 %
09.11.2016 07:36 0,5 C 98 % 1010,4 hPa 0,0 l/m 1,6 km/h (1 Bft) O-NO 65 0 min 0,000 mm 0,0 UV-I 34 W/m 0,2 C 0,5 C 3,2 km/h (1 Bft) 98,11 %
09.11.2016 07:38 0,5 C 98 % 1010,4 hPa 0,0 l/m 1,2 km/h (1 Bft) O-NO 65 0 min 0,000 mm 0,0 UV-I 27 W/m 0,2 C 0,5 C 3,2 km/h (1 Bft) 100,00 %
09.11.2016 07:40 0,5 C 98 % 1010,3 hPa 0,0 l/m 2,4 km/h (1 Bft) O-NO 65 0 min 0,000 mm 0,0 UV-I 20 W/m 0,2 C 0,5 C 4,8 km/h (1 Bft) 97,56 %
09.11.2016 07:42 0,6 C 98 % 1010,3 hPa 0,0 l/m 2,5 km/h (1 Bft) O 101 0 min 0,000 mm 0,0 UV-I 18 W/m 0,3 C 0,6 C 6,4 km/h (2 Bft) 98,11 %
09.11.2016 07:44 0,5 C 98 % 1010,3 hPa 0,0 l/m 2,3 km/h (1 Bft) O-SO 103 0 min 0,000 mm 0,0 UV-I 16 W/m 0,2 C 0,5 C 4,8 km/h (1 Bft) 100,00 %
09.11.2016 07:46 0,5 C 98 % 1010,3 hPa 0,0 l/m 1,4 km/h (1 Bft) O-SO 103 0 min 0,000 mm 0,0 UV-I 16 W/m 0,2 C 0,5 C 3,2 km/h (1 Bft) 100,00 %
09.11.2016 07:48 0,6 C 98 % 1010,3 hPa 0,0 l/m 2,1 km/h (1 Bft) O-SO 103 0 min 0,000 mm 0,0 UV-I 14 W/m 0,3 C 0,6 C 4,8 km/h (1 Bft) 100,00 %
09.11.2016 07:50 0,6 C 98 % 1010,3 hPa 0,0 l/m 3,5 km/h (1 Bft) O-SO 103 0 min 0,000 mm 0,0 UV-I 16 W/m 0,3 C 0,6 C 4,8 km/h (1 Bft) 97,87 %
09.11.2016 07:52 0,6 C 98 % 1010,2 hPa 0,0 l/m 3,0 km/h (1 Bft) O-SO 103 0 min 0,000 mm 0,0 UV-I 16 W/m 0,3 C 0,6 C 4,8 km/h (1 Bft) 93,62 %
09.11.2016 07:54 0,6 C 98 % 1010,2 hPa 0,0 l/m 3,8 km/h (1 Bft) O-SO 103 0 min 0,000 mm 0,0 UV-I 19 W/m 0,3 C 0,6 C 4,8 km/h (1 Bft) 98,00 %
09.11.2016 07:56 0,6 C 98 % 1010,2 hPa 0,0 l/m 3,0 km/h (1 Bft) O-SO 103 0 min 0,000 mm 0,0 UV-I 23 W/m 0,3 C 0,6 C 4,8 km/h (1 Bft) 97,62 %
09.11.2016 07:58 0,6 C 98 % 1010,3 hPa 0,0 l/m 1,3 km/h (1 Bft) O-SO 103 0 min 0,000 mm 0,0 UV-I 21 W/m 0,3 C 0,6 C 3,2 km/h (1 Bft) 96,15 %
09.11.2016 08:00 0,6 C 97 % 1010,3 hPa 0,0 l/m 0,0 km/h (0 Bft) O-SO 103 0 min 0,000 mm 0,0 UV-I 18 W/m 0,2 C 0,6 C 1,6 km/h (1 Bft) 94,44 %
09.11.2016 08:02 0,6 C 98 % 1010,3 hPa 0,0 l/m 0,0 km/h (0 Bft) O-SO 103 0 min 0,000 mm 0,0 UV-I 16 W/m 0,3 C 0,6 C 0,0 km/h (0 Bft) 98,00 %
09.11.2016 08:04 0,6 C 98 % 1010,3 hPa 0,0 l/m 0,0 km/h (0 Bft) O-SO 103 0 min 0,000 mm 0,0 UV-I 18 W/m 0,3 C 0,6 C 0,0 km/h (0 Bft) 96,55 %
09.11.2016 08:06 0,6 C 98 % 1010,4 hPa 0,0 l/m 0,0 km/h (0 Bft) O-SO 103 0 min 0,000 mm 0,0 UV-I 23 W/m 0,3 C 0,6 C 0,0 km/h (0 Bft) 96,92 %
09.11.2016 08:08 0,6 C 98 % 1010,3 hPa 0,0 l/m 0,0 km/h (0 Bft) O-SO 103 0 min 0,000 mm 0,0 UV-I 26 W/m 0,3 C 0,6 C 0,0 km/h (0 Bft) 96,00 %
09.11.2016 08:10 0,7 C 98 % 1010,3 hPa 0,0 l/m 0,0 km/h (0 Bft) O-SO 103 0 min 0,000 mm 0,0 UV-I 23 W/m 0,4 C 0,7 C 0,0 km/h (0 Bft) 98,00 %
09.11.2016 08:12 0,7 C 98 % 1010,3 hPa 0,0 l/m 0,0 km/h (0 Bft) O-SO 103 0 min 0,000 mm 0,0 UV-I 18 W/m 0,4 C 0,7 C 0,0 km/h (0 Bft) 97,87 %
09.11.2016 08:14 0,7 C 98 % 1010,3 hPa 0,0 l/m 0,3 km/h (0 Bft) O-SO 103 0 min 0,000 mm 0,0 UV-I 14 W/m 0,4 C 0,7 C 1,6 km/h (1 Bft) 95,74 %
09.11.2016 08:16 0,7 C 97 % 1010,4 hPa 0,0 l/m 0,3 km/h (0 Bft) O-SO 103 0 min 0,000 mm 0,0 UV-I 13 W/m 0,3 C 0,7 C 1,6 km/h (1 Bft) 94,87 %
09.11.2016 08:18 0,7 C 97 % 1010,4 hPa 0,0 l/m 0,0 km/h (0 Bft) O-SO 103 0 min 0,000 mm 0,0 UV-I 13 W/m 0,3 C 0,7 C 0,0 km/h (0 Bft) 96,23 %
09.11.2016 08:20 0,7 C 97 % 1010,4 hPa 0,0 l/m 0,0 km/h (0 Bft) O-SO 103 0 min 0,000 mm 0,0 UV-I 15 W/m 0,3 C 0,7 C 0,0 km/h (0 Bft) 94,74 %
09.11.2016 08:22 0,7 C 97 % 1010,4 hPa 0,0 l/m 0,2 km/h (0 Bft) O-SO 103 0 min 0,000 mm 0,0 UV-I 16 W/m 0,3 C 0,7 C 1,6 km/h (1 Bft) 97,87 %
09.11.2016 08:24 0,7 C 97 % 1010,4 hPa 0,0 l/m 1,1 km/h (1 Bft) O-SO 103 0 min 0,000 mm 0,0 UV-I 16 W/m 0,3 C 0,7 C 3,2 km/h (1 Bft) 98,00 %
09.11.2016 08:26 0,7 C 97 % 1010,4 hPa 0,0 l/m 0,9 km/h (0 Bft) O-SO 103 0 min 0,000 mm 0,0 UV-I 14 W/m 0,3 C 0,7 C 3,2 km/h (1 Bft) 98,00 %
09.11.2016 08:28 0,7 C 97 % 1010,4 hPa 0,0 l/m 1,3 km/h (1 Bft) O-SO 103 0 min 0,000 mm 0,0 UV-I 16 W/m 0,3 C 0,7 C 3,2 km/h (1 Bft) 98,00 %
09.11.2016 08:30 0,7 C 97 % 1010,4 hPa 0,0 l/m 1,5 km/h (1 Bft) O-SO 103 0 min 0,000 mm 0,0 UV-I 16 W/m 0,3 C 0,7 C 3,2 km/h (1 Bft) 100,00 %
09.11.2016 08:32 0,7 C 97 % 1010,4 hPa 0,0 l/m 1,4 km/h (1 Bft) O-SO 103 0 min 0,000 mm 0,0 UV-I 15 W/m 0,3 C 0,7 C 3,2 km/h (1 Bft) 97,56 %
09.11.2016 08:34 0,7 C 97 % 1010,3 hPa 0,0 l/m 3,3 km/h (1 Bft) O-SO 103 0 min 0,000 mm 0,0 UV-I 14 W/m 0,3 C 0,7 C 4,8 km/h (1 Bft) 100,00 %
09.11.2016 08:36 0,7 C 97 % 1010,3 hPa 0,0 l/m 1,8 km/h (1 Bft) O-SO 103 0 min 0,000 mm 0,0 UV-I 14 W/m 0,3 C 0,7 C 3,2 km/h (1 Bft) 98,00 %
09.11.2016 08:38 0,7 C 97 % 1010,3 hPa 0,0 l/m 2,0 km/h (1 Bft) O-SO 107 0 min 0,000 mm 0,0 UV-I 15 W/m 0,3 C 0,7 C 4,8 km/h (1 Bft) 100,00 %
09.11.2016 08:40 0,7 C 97 % 1010,3 hPa 0,0 l/m 2,9 km/h (1 Bft) SO 146 0 min 0,000 mm 0,0 UV-I 19 W/m 0,3 C 0,7 C 4,8 km/h (1 Bft) 100,00 %
09.11.2016 08:42 0,6 C 97 % 1010,3 hPa 0,0 l/m 3,1 km/h (1 Bft) S-SO 147 0 min 0,000 mm 0,0 UV-I 24 W/m 0,2 C 0,6 C 4,8 km/h (1 Bft) 98,00 %
09.11.2016 08:44 0,6 C 97 % 1010,3 hPa 0,0 l/m 3,2 km/h (1 Bft) S-SO 150 0 min 0,000 mm 0,0 UV-I 26 W/m 0,2 C 0,6 C 4,8 km/h (1 Bft) 100,00 %
09.11.2016 08:46 0,6 C 97 % 1010,3 hPa 0,0 l/m 2,4 km/h (1 Bft) S-SO 155 0 min 0,000 mm 0,0 UV-I 29 W/m 0,2 C 0,6 C 4,8 km/h (1 Bft) 100,00 %
09.11.2016 08:48 0,6 C 97 % 1010,3 hPa 0,0 l/m 2,8 km/h (1 Bft) S-SO 150 0 min 0,000 mm 0,0 UV-I 30 W/m 0,2 C 0,6 C 6,4 km/h (2 Bft) 100,00 %
09.11.2016 08:50 0,6 C 97 % 1010,4 hPa 0,0 l/m 2,8 km/h (1 Bft) S-SO 150 0 min 0,000 mm 0,0 UV-I 32 W/m 0,2 C 0,6 C 6,4 km/h (2 Bft) 97,87 %
09.11.2016 08:52 0,6 C 97 % 1010,3 hPa 0,0 l/m 3,0 km/h (1 Bft) S-SO 153 0 min 0,000 mm 0,0 UV-I 34 W/m 0,2 C 0,6 C 6,4 km/h (2 Bft) 100,00 %
09.11.2016 08:54 0,6 C 97 % 1010,4 hPa 0,0 l/m 3,3 km/h (1 Bft) S-SO 148 0 min 0,000 mm 0,0 UV-I 33 W/m 0,2 C 0,6 C 6,4 km/h (2 Bft) 98,11 %
09.11.2016 08:56 0,6 C 97 % 1010,3 hPa 0,0 l/m 1,3 km/h (1 Bft) S-SO 148 0 min 0,000 mm 0,0 UV-I 33 W/m 0,2 C 0,6 C 3,2 km/h (1 Bft) 96,00 %
09.11.2016 08:58 0,6 C 97 % 1010,3 hPa 0,0 l/m 3,3 km/h (1 Bft) S-SO 148 0 min 0,000 mm 0,0 UV-I 38 W/m 0,2 C 0,6 C 6,4 km/h (2 Bft) 100,00 %
09.11.2016 09:00 0,7 C 97 % 1010,4 hPa 0,0 l/m 2,0 km/h (1 Bft) S-SO 148 0 min 0,000 mm 0,0 UV-I 40 W/m 0,3 C 0,7 C 4,8 km/h (1 Bft) 98,11 %
09.11.2016 09:02 0,7 C 97 % 1010,3 hPa 0,0 l/m 1,8 km/h (1 Bft) S-SO 148 0 min 0,000 mm 0,0 UV-I 37 W/m 0,3 C 0,7 C 6,4 km/h (2 Bft) 100,00 %
09.11.2016 09:04 0,7 C 97 % 1010,4 hPa 0,0 l/m 1,3 km/h (1 Bft) S-SO 148 0 min 0,000 mm 0,0 UV-I 33 W/m 0,3 C 0,7 C 3,2 km/h (1 Bft) 100,00 %
09.11.2016 09:06 0,7 C 97 % 1010,3 hPa 0,0 l/m 1,1 km/h (1 Bft) S-SO 148 0 min 0,000 mm 0,0 UV-I 34 W/m 0,3 C 0,7 C 3,2 km/h (1 Bft) 97,87 %
09.11.2016 09:08 0,7 C 97 % 1010,3 hPa 0,0 l/m 2,3 km/h (1 Bft) S-SO 148 0 min 0,000 mm 0,0 UV-I 37 W/m 0,3 C 0,7 C 4,8 km/h (1 Bft) 97,56 %
09.11.2016 09:10 0,7 C 97 % 1010,4 hPa 0,0 l/m 2,1 km/h (1 Bft) S-SO 148 0 min 0,000 mm 0,0 UV-I 37 W/m 0,3 C 0,7 C 6,4 km/h (2 Bft) 100,00 %
09.11.2016 09:12 0,7 C 97 % 1010,3 hPa 0,0 l/m 0,5 km/h (0 Bft) S-SO 148 0 min 0,000 mm 0,0 UV-I 34 W/m 0,3 C 0,7 C 3,2 km/h (1 Bft) 95,74 %
09.11.2016 09:14 0,7 C 97 % 1010,3 hPa 0,0 l/m 0,8 km/h (0 Bft) S-SO 148 0 min 0,000 mm 0,0 UV-I 32 W/m 0,3 C 0,7 C 3,2 km/h (1 Bft) 100,00 %
09.11.2016 09:16 0,7 C 97 % 1010,3 hPa 0,0 l/m 1,4 km/h (1 Bft) S-SO 148 0 min 0,000 mm 0,0 UV-I 32 W/m 0,3 C 0,7 C 3,2 km/h (1 Bft) 100,00 %
09.11.2016 09:18 0,7 C 97 % 1010,4 hPa 0,0 l/m 0,7 km/h (0 Bft) S-SO 148 0 min 0,000 mm 0,0 UV-I 34 W/m 0,3 C 0,7 C 1,6 km/h (1 Bft) 100,00 %
09.11.2016 09:20 0,8 C 97 % 1010,4 hPa 0,0 l/m 0,4 km/h (0 Bft) S-SO 148 0 min 0,000 mm 0,0 UV-I 40 W/m 0,4 C 0,8 C 1,6 km/h (1 Bft) 100,00 %
09.11.2016 09:22 0,8 C 97 % 1010,4 hPa 0,0 l/m 1,0 km/h (0 Bft) S-SO 148 0 min 0,000 mm 0,0 UV-I 47 W/m 0,4 C 0,8 C 3,2 km/h (1 Bft) 100,00 %
09.11.2016 09:24 0,8 C 97 % 1010,4 hPa 0,0 l/m 0,5 km/h (0 Bft) S-SO 148 0 min 0,000 mm 0,0 UV-I 53 W/m 0,4 C 0,8 C 3,2 km/h (1 Bft) 100,00 %
09.11.2016 09:26 0,8 C 97 % 1010,3 hPa 0,0 l/m 0,5 km/h (0 Bft) S-SO 148 0 min 0,000 mm 0,0 UV-I 62 W/m 0,4 C 0,8 C 1,6 km/h (1 Bft) 97,87 %
09.11.2016 09:28 0,8 C 97 % 1010,3 hPa 0,0 l/m 2,7 km/h (1 Bft) S-SO 148 0 min 0,000 mm 0,0 UV-I 71 W/m 0,4 C 0,8 C 4,8 km/h (1 Bft) 100,00 %
09.11.2016 09:30 0,8 C 97 % 1010,2 hPa 0,0 l/m 1,3 km/h (1 Bft) S-SO 148 0 min 0,000 mm 0,0 UV-I 80 W/m 0,4 C 0,8 C 4,8 km/h (1 Bft) 100,00 %
09.11.2016 09:32 0,9 C 97 % 1010,2 hPa 0,2 l/m 1,8 km/h (1 Bft) S-SO 148 0 min 0,000 mm 0,0 UV-I 78 W/m 0,5 C 0,9 C 3,2 km/h (1 Bft) 100,00 %
09.11.2016 09:34 0,9 C 97 % 1010,2 hPa 0,0 l/m 1,8 km/h (1 Bft) S-SO 148 0 min 0,000 mm 0,0 UV-I 83 W/m 0,5 C 0,9 C 4,8 km/h (1 Bft) 100,00 %
09.11.2016 09:36 0,9 C 97 % 1010,1 hPa 0,0 l/m 2,1 km/h (1 Bft) S-SO 148 0 min 0,000 mm 0,0 UV-I 92 W/m 0,5 C 0,9 C 4,8 km/h (1 Bft) 100,00 %
09.11.2016 09:38 1,0 C 97 % 1010,2 hPa 0,0 l/m 2,4 km/h (1 Bft) S-SO 148 0 min 0,000 mm 0,0 UV-I 102 W/m 0,6 C 1,0 C 4,8 km/h (1 Bft) 100,00 %
09.11.2016 09:40 1,0 C 96 % 1010,1 hPa 0,0 l/m 3,9 km/h (1 Bft) SO 138 0 min 0,000 mm 0,0 UV-I 115 W/m 0,4 C 1,0 C 6,4 km/h (2 Bft) 100,00 %
09.11.2016 09:42 1,1 C 96 % 1010,1 hPa 0,0 l/m 2,5 km/h (1 Bft) SO 138 0 min 0,000 mm 0,0 UV-I 135 W/m 0,5 C 1,1 C 4,8 km/h (1 Bft) 100,00 %
09.11.2016 09:44 1,1 C 96 % 1010,0 hPa 0,0 l/m 4,1 km/h (1 Bft) SO 134 0 min 0,000 mm 0,3 UV-I 164 W/m 0,5 C 1,1 C 8,0 km/h (2 Bft) 98,11 %
09.11.2016 09:46 1,2 C 96 % 1009,9 hPa 0,0 l/m 3,7 km/h (1 Bft) SO 134 2 min 0,000 mm 0,6 UV-I 252 W/m 0,6 C 1,2 C 4,8 km/h (1 Bft) 100,00 %
09.11.2016 09:48 1,3 C 96 % 1009,9 hPa 0,0 l/m 4,0 km/h (1 Bft) SO 134 2 min 0,000 mm 0,6 UV-I 345 W/m 0,7 C 1,3 C 4,8 km/h (1 Bft) 100,00 %
09.11.2016 09:50 1,5 C 96 % 1009,9 hPa 0,0 l/m 4,1 km/h (1 Bft) SO 134 2 min 0,000 mm 0,6 UV-I 334 W/m 0,9 C 1,5 C 6,4 km/h (2 Bft) 100,00 %
09.11.2016 09:52 1,6 C 95 % 1009,9 hPa 0,0 l/m 3,1 km/h (1 Bft) SO 134 2 min 0,000 mm 0,6 UV-I 333 W/m 0,9 C 1,6 C 4,8 km/h (1 Bft) 96,00 %
09.11.2016 09:54 1,7 C 95 % 1009,8 hPa 0,0 l/m 1,7 km/h (1 Bft) SO 134 2 min 0,000 mm 0,6 UV-I 336 W/m 1,0 C 1,7 C 4,8 km/h (1 Bft) 98,00 %
09.11.2016 09:56 1,8 C 95 % 1009,8 hPa 0,0 l/m 1,6 km/h (1 Bft) SO 134 2 min 0,000 mm 0,7 UV-I 381 W/m 1,1 C 1,8 C 3,2 km/h (1 Bft) 97,62 %
09.11.2016 09:58 1,8 C 93 % 1009,9 hPa 0,0 l/m 0,9 km/h (0 Bft) SO 134 2 min 0,000 mm 0,7 UV-I 411 W/m 0,8 C 1,8 C 3,2 km/h (1 Bft) 96,23 %
09.11.2016 10:00 1,8 C 93 % 1009,8 hPa 0,0 l/m 1,4 km/h (1 Bft) SO 134 2 min 0,000 mm 0,7 UV-I 374 W/m 0,8 C 1,8 C 3,2 km/h (1 Bft) 94,74 %
09.11.2016 10:02 1,9 C 93 % 1009,7 hPa 0,0 l/m 1,6 km/h (1 Bft) SO 134 2 min 0,051 mm 0,7 UV-I 341 W/m 0,9 C 1,9 C 3,2 km/h (1 Bft) 98,00 %
09.11.2016 10:04 2,0 C 93 % 1009,8 hPa 0,0 l/m 1,6 km/h (1 Bft) SO 134 2 min 0,000 mm 0,7 UV-I 374 W/m 1,0 C 2,0 C 3,2 km/h (1 Bft) 93,62 %
09.11.2016 10:06 2,2 C 93 % 1009,8 hPa 0,0 l/m 1,0 km/h (0 Bft) SO 134 2 min 0,000 mm 0,7 UV-I 390 W/m 1,2 C 2,2 C 3,2 km/h (1 Bft) 95,74 %
09.11.2016 10:08 2,2 C 92 % 1009,8 hPa 0,0 l/m 2,7 km/h (1 Bft) SO 134 2 min 0,000 mm 0,7 UV-I 388 W/m 1,0 C 2,2 C 4,8 km/h (1 Bft) 97,87 %
09.11.2016 10:10 2,3 C 92 % 1009,8 hPa 0,0 l/m 3,4 km/h (1 Bft) SO 133 2 min 0,000 mm 0,7 UV-I 382 W/m 1,1 C 2,3 C 6,4 km/h (2 Bft) 95,74 %
09.11.2016 10:12 2,3 C 92 % 1009,8 hPa 0,0 l/m 2,3 km/h (1 Bft) SO 134 2 min 0,000 mm 0,7 UV-I 390 W/m 1,1 C 2,3 C 6,4 km/h (2 Bft) 97,87 %
09.11.2016 10:14 2,3 C 92 % 1009,7 hPa 0,0 l/m 1,8 km/h (1 Bft) SO 134 2 min 0,000 mm 0,7 UV-I 389 W/m 1,1 C 2,3 C 4,8 km/h (1 Bft) 97,87 %
09.11.2016 10:16 2,4 C 93 % 1009,7 hPa 0,0 l/m 2,9 km/h (1 Bft) SO 134 2 min 0,000 mm 0,8 UV-I 386 W/m 1,4 C 2,4 C 4,8 km/h (1 Bft) 95,74 %
09.11.2016 10:18 2,6 C 93 % 1009,7 hPa 0,0 l/m 2,0 km/h (1 Bft) SO 134 2 min 0,000 mm 0,8 UV-I 391 W/m 1,6 C 2,6 C 6,4 km/h (2 Bft) 97,87 %
09.11.2016 10:20 2,7 C 92 % 1009,7 hPa 0,0 l/m 4,5 km/h (1 Bft) O-SO 115 2 min 0,000 mm 0,8 UV-I 386 W/m 1,5 C 2,7 C 8,0 km/h (2 Bft) 97,87 %
09.11.2016 10:22 2,7 C 91 % 1009,7 hPa 0,0 l/m 2,2 km/h (1 Bft) SO 127 2 min 0,000 mm 0,8 UV-I 395 W/m 1,4 C 2,7 C 4,8 km/h (1 Bft) 100,00 %
09.11.2016 10:24 2,7 C 92 % 1009,7 hPa 0,0 l/m 3,2 km/h (1 Bft) O-SO 111 2 min 0,000 mm 0,8 UV-I 391 W/m 1,5 C 2,7 C 9,7 km/h (2 Bft) 97,87 %
09.11.2016 10:26 2,7 C 91 % 1009,7 hPa 0,0 l/m 8,7 km/h (2 Bft) O 94 2 min 0,000 mm 0,8 UV-I 339 W/m 1,4 C 0,6 C 11,3 km/h (2 Bft) 100,00 %
09.11.2016 10:29 2,6 C 90 % 1009,6 hPa 0,0 l/m 6,4 km/h (2 Bft) O 86 3 min 0,000 mm 0,7 UV-I 219 W/m 1,1 C 2,6 C 9,7 km/h (2 Bft) 98,59 %
09.11.2016 10:30 2,6 C 90 % 1009,6 hPa 0,0 l/m 5,6 km/h (1 Bft) O-SO 117 0 min 0,000 mm 0,7 UV-I 164 W/m 1,1 C 2,6 C 6,4 km/h (2 Bft) 95,65 %
09.11.2016 10:32 2,5 C 91 % 1009,6 hPa 0,0 l/m 4,8 km/h (1 Bft) O-SO 110 0 min 0,000 mm 0,7 UV-I 161 W/m 1,2 C 2,5 C 9,7 km/h (2 Bft) 100,00 %
09.11.2016 10:34 2,4 C 91 % 1009,5 hPa 0,0 l/m 6,1 km/h (2 Bft) O-SO 113 0 min 0,000 mm 0,6 UV-I 165 W/m 1,1 C 2,4 C 9,7 km/h (2 Bft) 100,00 %
09.11.2016 10:36 2,4 C 91 % 1009,5 hPa 0,0 l/m 6,1 km/h (2 Bft) O-SO 107 0 min 0,000 mm 0,6 UV-I 179 W/m 1,1 C 2,4 C 9,7 km/h (2 Bft) 97,87 %
09.11.2016 10:38 2,4 C 92 % 1009,5 hPa 0,0 l/m 7,1 km/h (2 Bft) O-SO 106 2 min 0,000 mm 0,6 UV-I 240 W/m 1,2 C 1,7 C 11,3 km/h (2 Bft) 100,00 %
09.11.2016 10:40 2,5 C 92 % 1009,5 hPa 0,0 l/m 3,9 km/h (1 Bft) S-SO 154 2 min 0,000 mm 0,6 UV-I 281 W/m 1,3 C 2,5 C 9,7 km/h (2 Bft) 100,00 %
09.11.2016 10:42 2,4 C 91 % 1009,5 hPa 0,0 l/m 4,2 km/h (1 Bft) S-SO 157 2 min 0,000 mm 0,7 UV-I 286 W/m 1,1 C 2,4 C 8,0 km/h (2 Bft) 97,14 %
09.11.2016 10:44 2,6 C 92 % 1009,5 hPa 0,0 l/m 2,6 km/h (1 Bft) S-SO 155 2 min 0,000 mm 0,7 UV-I 306 W/m 1,4 C 2,6 C 4,8 km/h (1 Bft) 100,00 %
09.11.2016 10:46 2,6 C 91 % 1009,5 hPa 0,0 l/m 2,4 km/h (1 Bft) S 172 2 min 0,000 mm 0,7 UV-I 304 W/m 1,3 C 2,6 C 6,4 km/h (2 Bft) 97,92 %
09.11.2016 10:48 2,4 C 90 % 1009,5 hPa 0,0 l/m 0,5 km/h (0 Bft) S 172 2 min 0,000 mm 0,7 UV-I 259 W/m 0,9 C 2,4 C 3,2 km/h (1 Bft) 97,87 %
09.11.2016 10:50 2,5 C 91 % 1009,5 hPa 0,0 l/m 4,7 km/h (1 Bft) S-SW 196 2 min 0,000 mm 0,7 UV-I 265 W/m 1,2 C 2,5 C 9,7 km/h (2 Bft) 100,00 %
09.11.2016 10:52 2,4 C 90 % 1009,5 hPa 0,0 l/m 1,5 km/h (1 Bft) S-SW 196 0 min 0,000 mm 0,7 UV-I 215 W/m 0,9 C 2,4 C 4,8 km/h (1 Bft) 100,00 %
09.11.2016 10:54 2,4 C 89 % 1009,5 hPa 0,0 l/m 0,5 km/h (0 Bft) S-SW 196 0 min 0,000 mm 0,7 UV-I 162 W/m 0,8 C 2,4 C 3,2 km/h (1 Bft) 97,87 %
09.11.2016 10:56 2,4 C 89 % 1009,5 hPa 0,0 l/m 0,4 km/h (0 Bft) S-SW 196 0 min 0,000 mm 0,7 UV-I 173 W/m 0,8 C 2,4 C 1,6 km/h (1 Bft) 100,00 %
09.11.2016 10:58 2,4 C 89 % 1009,4 hPa 0,0 l/m 0,7 km/h (0 Bft) S-SW 196 0 min 0,000 mm 0,7 UV-I 194 W/m 0,8 C 2,4 C 1,6 km/h (1 Bft) 97,87 %
09.11.2016 11:00 2,4 C 90 % 1009,4 hPa 0,0 l/m 2,0 km/h (1 Bft) S-SW 196 2 min 0,000 mm 0,8 UV-I 267 W/m 0,9 C 2,4 C 3,2 km/h (1 Bft) 100,00 %
09.11.2016 11:02 2,6 C 90 % 1009,3 hPa 0,0 l/m 3,1 km/h (1 Bft) S-SO 153 2 min 0,101 mm 0,8 UV-I 267 W/m 1,1 C 2,6 C 6,4 km/h (2 Bft) 100,00 %
09.11.2016 11:04 2,6 C 89 % 1009,3 hPa 0,0 l/m 1,3 km/h (1 Bft) S-SO 153 2 min 0,000 mm 0,8 UV-I 244 W/m 1,0 C 2,6 C 3,2 km/h (1 Bft) 100,00 %
09.11.2016 11:06 2,5 C 90 % 1009,3 hPa 0,0 l/m 0,7 km/h (0 Bft) S-SO 153 0 min 0,000 mm 0,8 UV-I 211 W/m 1,0 C 2,5 C 3,2 km/h (1 Bft) 100,00 %
09.11.2016 11:09 2,6 C 90 % 1009,2 hPa 0,0 l/m 1,6 km/h (1 Bft) O-SO 121 0 min 0,000 mm 0,8 UV-I 196 W/m 1,1 C 2,6 C 4,8 km/h (1 Bft) 98,59 %
09.11.2016 11:10 2,6 C 90 % 1009,2 hPa 0,0 l/m 1,9 km/h (1 Bft) O-SO 121 0 min 0,000 mm 0,8 UV-I 192 W/m 1,1 C 2,6 C 3,2 km/h (1 Bft) 95,65 %
09.11.2016 11:12 2,6 C 89 % 1009,2 hPa 0,0 l/m 4,0 km/h (1 Bft) O-NO 69 0 min 0,000 mm 0,9 UV-I 209 W/m 1,0 C 2,6 C 6,4 km/h (2 Bft) 97,87 %
09.11.2016 11:14 2,7 C 89 % 1009,1 hPa 0,0 l/m 3,5 km/h (1 Bft) O-NO 73 0 min 0,000 mm 1,0 UV-I 223 W/m 1,1 C 2,7 C 6,4 km/h (2 Bft) 100,00 %
09.11.2016 11:16 2,8 C 89 % 1009,1 hPa 0,0 l/m 3,8 km/h (1 Bft) O-NO 66 2 min 0,000 mm 1,0 UV-I 382 W/m 1,2 C 2,8 C 6,4 km/h (2 Bft) 100,00 %
09.11.2016 11:18 3,2 C 91 % 1009,0 hPa 0,0 l/m 3,8 km/h (1 Bft) O-NO 65 2 min 0,000 mm 1,0 UV-I 520 W/m 1,9 C 3,2 C 4,8 km/h (1 Bft) 100,00 %
09.11.2016 11:20 3,3 C 88 % 1009,0 hPa 0,0 l/m 3,7 km/h (1 Bft) O-NO 63 2 min 0,000 mm 1,0 UV-I 426 W/m 1,5 C 3,3 C 6,4 km/h (2 Bft) 100,00 %
09.11.2016 11:22 3,3 C 90 % 1008,9 hPa 0,0 l/m 4,7 km/h (1 Bft) O 101 2 min 0,000 mm 0,9 UV-I 388 W/m 1,8 C 3,3 C 9,7 km/h (2 Bft) 100,00 %
09.11.2016 11:25 3,4 C 89 % 1008,8 hPa 0,0 l/m 2,4 km/h (1 Bft) O 90 3 min 0,000 mm 1,0 UV-I 482 W/m 1,8 C 3,4 C 4,8 km/h (1 Bft) 100,00 %
09.11.2016 11:26 3,3 C 87 % 1008,8 hPa 0,0 l/m 2,8 km/h (1 Bft) O 90 1 min 0,000 mm 1,0 UV-I 566 W/m 1,3 C 3,3 C 4,8 km/h (1 Bft) 100,00 %
09.11.2016 11:28 3,4 C 88 % 1008,9 hPa 0,0 l/m 4,7 km/h (1 Bft) O-NO 75 2 min 0,000 mm 1,0 UV-I 506 W/m 1,6 C 3,4 C 6,4 km/h (2 Bft) 97,92 %
09.11.2016 11:30 3,3 C 88 % 1008,8 hPa 0,0 l/m 2,9 km/h (1 Bft) O-NO 75 2 min 0,000 mm 1,0 UV-I 448 W/m 1,5 C 3,3 C 4,8 km/h (1 Bft) 98,00 %
09.11.2016 11:32 3,3 C 88 % 1008,8 hPa 0,0 l/m 5,4 km/h (1 Bft) O-NO 68 2 min 0,000 mm 1,0 UV-I 527 W/m 1,5 C 3,3 C 8,0 km/h (2 Bft) 98,00 %
09.11.2016 11:34 3,4 C 88 % 1008,7 hPa 0,0 l/m 4,1 km/h (1 Bft) O 80 2 min 0,000 mm 1,0 UV-I 493 W/m 1,6 C 3,4 C 6,4 km/h (2 Bft) 91,49 %
09.11.2016 11:36 3,3 C 88 % 1008,7 hPa 0,0 l/m 2,5 km/h (1 Bft) O 80 2 min 0,000 mm 1,1 UV-I 534 W/m 1,5 C 3,3 C 4,8 km/h (1 Bft) 93,62 %
09.11.2016 11:38 3,5 C 88 % 1008,7 hPa 0,0 l/m 4,7 km/h (1 Bft) NO 55 2 min 0,000 mm 1,1 UV-I 489 W/m 1,7 C 3,5 C 8,0 km/h (2 Bft) 97,87 %
09.11.2016 11:40 3,6 C 89 % 1008,6 hPa 0,0 l/m 4,4 km/h (1 Bft) NO 48 2 min 0,000 mm 1,0 UV-I 391 W/m 2,0 C 3,6 C 8,0 km/h (2 Bft) 97,87 %
09.11.2016 11:42 3,5 C 87 % 1008,6 hPa 0,0 l/m 0,9 km/h (0 Bft) NO 48 2 min 0,000 mm 1,0 UV-I 322 W/m 1,5 C 3,5 C 3,2 km/h (1 Bft) 97,87 %
09.11.2016 11:44 3,6 C 87 % 1008,5 hPa 0,0 l/m 3,9 km/h (1 Bft) O-NO 60 2 min 0,000 mm 1,0 UV-I 384 W/m 1,6 C 3,6 C 8,0 km/h (2 Bft) 97,14 %
09.11.2016 11:46 3,7 C 86 % 1008,5 hPa 0,0 l/m 5,2 km/h (1 Bft) O-NO 63 2 min 0,000 mm 1,1 UV-I 507 W/m 1,6 C 3,7 C 8,0 km/h (2 Bft) 97,87 %
09.11.2016 11:48 3,7 C 85 % 1008,5 hPa 0,0 l/m 3,4 km/h (1 Bft) O-NO 63 2 min 0,000 mm 1,1 UV-I 530 W/m 1,4 C 3,7 C 6,4 km/h (2 Bft) 98,11 %
09.11.2016 11:50 3,8 C 85 % 1008,4 hPa 0,0 l/m 4,5 km/h (1 Bft) O-NO 67 2 min 0,000 mm 1,1 UV-I 533 W/m 1,5 C 3,8 C 8,0 km/h (2 Bft) 95,74 %
09.11.2016 11:52 3,9 C 86 % 1008,4 hPa 0,0 l/m 5,8 km/h (2 Bft) NO 49 2 min 0,000 mm 1,1 UV-I 519 W/m 1,8 C 3,9 C 8,0 km/h (2 Bft) 98,00 %
09.11.2016 11:54 4,0 C 86 % 1008,4 hPa 0,0 l/m 6,6 km/h (2 Bft) O-NO 61 2 min 0,000 mm 1,1 UV-I 491 W/m 1,9 C 3,8 C 9,7 km/h (2 Bft) 95,74 %
09.11.2016 11:56 4,1 C 86 % 1008,4 hPa 0,0 l/m 4,7 km/h (1 Bft) O-NO 57 2 min 0,000 mm 1,1 UV-I 481 W/m 2,0 C 4,1 C 6,4 km/h (2 Bft) 91,49 %
09.11.2016 11:59 3,8 C 83 % 1008,3 hPa 0,0 l/m 3,4 km/h (1 Bft) O-NO 75 3 min 0,000 mm 1,1 UV-I 467 W/m 1,2 C 3,8 C 6,4 km/h (2 Bft) 98,59 %
09.11.2016 12:00 3,7 C 84 % 1008,3 hPa 0,0 l/m 2,7 km/h (1 Bft) O-NO 74 1 min 0,000 mm 1,1 UV-I 473 W/m 1,3 C 3,7 C 4,8 km/h (1 Bft) 100,00 %
09.11.2016 12:02 3,8 C 85 % 1008,3 hPa 0,0 l/m 3,7 km/h (1 Bft) O 81 2 min 0,153 mm 1,1 UV-I 443 W/m 1,5 C 3,8 C 6,4 km/h (2 Bft) 98,11 %
09.11.2016 12:04 3,7 C 83 % 1008,3 hPa 0,0 l/m 4,7 km/h (1 Bft) O-NO 68 2 min 0,000 mm 1,1 UV-I 453 W/m 1,1 C 3,7 C 8,0 km/h (2 Bft) 100,00 %
09.11.2016 12:06 3,7 C 83 % 1008,2 hPa 0,0 l/m 2,7 km/h (1 Bft) O-NO 67 2 min 0,000 mm 1,1 UV-I 450 W/m 1,1 C 3,7 C 6,4 km/h (2 Bft) 95,74 %
09.11.2016 12:09 3,7 C 84 % 1008,2 hPa 0,0 l/m 2,5 km/h (1 Bft) O-NO 65 3 min 0,000 mm 1,0 UV-I 434 W/m 1,3 C 3,7 C 4,8 km/h (1 Bft) 98,63 %
09.11.2016 12:10 3,8 C 84 % 1008,2 hPa 0,0 l/m 2,9 km/h (1 Bft) O-NO 65 1 min 0,000 mm 0,9 UV-I 307 W/m 1,4 C 3,8 C 4,8 km/h (1 Bft) 100,00 %
09.11.2016 12:12 3,7 C 84 % 1008,2 hPa 0,0 l/m 3,9 km/h (1 Bft) NO 42 0 min 0,000 mm 1,0 UV-I 188 W/m 1,3 C 3,7 C 6,4 km/h (2 Bft) 100,00 %
09.11.2016 12:14 3,7 C 83 % 1008,2 hPa 0,0 l/m 2,3 km/h (1 Bft) NO 34 2 min 0,000 mm 1,1 UV-I 470 W/m 1,1 C 3,7 C 4,8 km/h (1 Bft) 100,00 %
09.11.2016 12:16 3,8 C 84 % 1008,2 hPa 0,0 l/m 2,9 km/h (1 Bft) NO 40 2 min 0,000 mm 1,0 UV-I 319 W/m 1,4 C 3,8 C 6,4 km/h (2 Bft) 100,00 %
09.11.2016 12:18 3,9 C 84 % 1008,1 hPa 0,0 l/m 4,4 km/h (1 Bft) NO 54 2 min 0,000 mm 1,1 UV-I 418 W/m 1,4 C 3,9 C 6,4 km/h (2 Bft) 100,00 %
09.11.2016 12:20 4,0 C 84 % 1008,1 hPa 0,0 l/m 3,7 km/h (1 Bft) NO 50 2 min 0,000 mm 1,1 UV-I 482 W/m 1,5 C 4,0 C 6,4 km/h (2 Bft) 97,87 %
09.11.2016 12:22 4,2 C 84 % 1008,1 hPa 0,0 l/m 3,5 km/h (1 Bft) O-SO 104 2 min 0,000 mm 1,1 UV-I 470 W/m 1,7 C 4,2 C 6,4 km/h (2 Bft) 100,00 %
09.11.2016 12:24 4,2 C 82 % 1008,0 hPa 0,0 l/m 3,8 km/h (1 Bft) SO 126 2 min 0,000 mm 1,1 UV-I 453 W/m 1,4 C 4,2 C 9,7 km/h (2 Bft) 100,00 %
09.11.2016 12:26 4,1 C 82 % 1008,0 hPa 0,0 l/m 1,8 km/h (1 Bft) SO 126 2 min 0,000 mm 1,1 UV-I 472 W/m 1,3 C 4,1 C 3,2 km/h (1 Bft) 100,00 %
09.11.2016 12:28 4,2 C 82 % 1008,0 hPa 0,0 l/m 5,1 km/h (1 Bft) O 101 2 min 0,000 mm 1,1 UV-I 485 W/m 1,4 C 4,2 C 9,7 km/h (2 Bft) 97,87 %
09.11.2016 12:30 4,2 C 82 % 1008,0 hPa 0,0 l/m 3,5 km/h (1 Bft) SO 134 2 min 0,000 mm 1,1 UV-I 494 W/m 1,4 C 4,2 C 6,4 km/h (2 Bft) 100,00 %
09.11.2016 12:32 4,2 C 82 % 1008,0 hPa 0,0 l/m 2,7 km/h (1 Bft) SO 129 2 min 0,000 mm 1,1 UV-I 492 W/m 1,4 C 4,2 C 4,8 km/h (1 Bft) 97,87 %
09.11.2016 12:34 4,3 C 84 % 1008,0 hPa 0,0 l/m 3,9 km/h (1 Bft) O-NO 62 2 min 0,000 mm 1,0 UV-I 481 W/m 1,8 C 4,3 C 8,0 km/h (2 Bft) 100,00 %
09.11.2016 12:36 4,4 C 82 % 1008,0 hPa 0,0 l/m 7,1 km/h (2 Bft) O-NO 76 2 min 0,000 mm 1,0 UV-I 488 W/m 1,6 C 3,8 C 9,7 km/h (2 Bft) 97,87 %
09.11.2016 12:39 4,4 C 81 % 1007,9 hPa 0,0 l/m 4,5 km/h (1 Bft) NO 51 3 min 0,000 mm 0,9 UV-I 367 W/m 1,4 C 4,4 C 6,4 km/h (2 Bft) 98,59 %
09.11.2016 12:40 4,4 C 82 % 1007,9 hPa 0,0 l/m 6,1 km/h (2 Bft) N-NO 23 0 min 0,000 mm 0,8 UV-I 194 W/m 1,6 C 4,4 C 8,0 km/h (2 Bft) 100,00 %
09.11.2016 12:42 4,4 C 83 % 1007,9 hPa 0,0 l/m 6,6 km/h (2 Bft) O 86 2 min 0,000 mm 0,9 UV-I 269 W/m 1,8 C 4,2 C 8,0 km/h (2 Bft) 100,00 %
09.11.2016 12:44 4,3 C 82 % 1007,9 hPa 0,0 l/m 4,6 km/h (1 Bft) O 88 2 min 0,000 mm 0,9 UV-I 239 W/m 1,5 C 4,3 C 6,4 km/h (2 Bft) 100,00 %
09.11.2016 12:46 4,3 C 83 % 1007,9 hPa 0,0 l/m 4,6 km/h (1 Bft) NO 51 2 min 0,000 mm 1,0 UV-I 287 W/m 1,7 C 4,3 C 6,4 km/h (2 Bft) 100,00 %
09.11.2016 12:49 4,3 C 82 % 1007,8 hPa 0,0 l/m 2,9 km/h (1 Bft) NO 48 3 min 0,000 mm 1,0 UV-I 448 W/m 1,5 C 4,3 C 6,4 km/h (2 Bft) 95,89 %
09.11.2016 12:50 4,3 C 82 % 1007,8 hPa 0,0 l/m 1,8 km/h (1 Bft) NO 48 1 min 0,000 mm 0,9 UV-I 400 W/m 1,5 C 4,3 C 4,8 km/h (1 Bft) 100,00 %
09.11.2016 12:52 4,4 C 82 % 1007,8 hPa 0,0 l/m 2,4 km/h (1 Bft) N-NO 16 2 min 0,000 mm 1,0 UV-I 440 W/m 1,6 C 4,4 C 4,8 km/h (1 Bft) 100,00 %
09.11.2016 12:54 4,4 C 80 % 1007,8 hPa 0,0 l/m 1,6 km/h (1 Bft) N-NO 12 2 min 0,000 mm 1,0 UV-I 443 W/m 1,3 C 4,4 C 3,2 km/h (1 Bft) 100,00 %
09.11.2016 12:56 4,3 C 80 % 1007,7 hPa 0,0 l/m 1,6 km/h (1 Bft) N 9 2 min 0,000 mm 0,9 UV-I 437 W/m 1,2 C 4,3 C 4,8 km/h (1 Bft) 100,00 %
09.11.2016 12:58 4,6 C 82 % 1007,7 hPa 0,0 l/m 0,1 km/h (0 Bft) N 9 2 min 0,000 mm 0,9 UV-I 441 W/m 1,8 C 4,6 C 1,6 km/h (1 Bft) 100,00 %
09.11.2016 13:00 4,8 C 82 % 1007,7 hPa 0,0 l/m 0,3 km/h (0 Bft) NO 54 2 min 0,152 mm 0,9 UV-I 449 W/m 2,0 C 4,8 C 3,2 km/h (1 Bft) 97,87 %
09.11.2016 13:02 4,8 C 79 % 1007,6 hPa 0,0 l/m 6,1 km/h (2 Bft) NO 54 2 min 0,000 mm 0,9 UV-I 450 W/m 1,5 C 4,8 C 8,0 km/h (2 Bft) 95,74 %
09.11.2016 13:04 4,8 C 80 % 1007,6 hPa 0,0 l/m 4,2 km/h (1 Bft) O-NO 77 2 min 0,000 mm 0,9 UV-I 443 W/m 1,6 C 4,8 C 8,0 km/h (2 Bft) 97,87 %
09.11.2016 13:06 4,8 C 79 % 1007,5 hPa 0,0 l/m 5,0 km/h (1 Bft) NO 53 2 min 0,000 mm 0,9 UV-I 436 W/m 1,5 C 4,8 C 6,4 km/h (2 Bft) 97,87 %
09.11.2016 13:08 4,7 C 79 % 1007,5 hPa 0,0 l/m 0,8 km/h (0 Bft) NO 53 2 min 0,000 mm 0,9 UV-I 428 W/m 1,4 C 4,7 C 3,2 km/h (1 Bft) 97,87 %
09.11.2016 13:10 4,7 C 80 % 1007,5 hPa 0,0 l/m 3,5 km/h (1 Bft) O-NO 65 2 min 0,000 mm 0,9 UV-I 416 W/m 1,6 C 4,7 C 4,8 km/h (1 Bft) 95,74 %
09.11.2016 13:12 4,7 C 80 % 1007,5 hPa 0,0 l/m 5,3 km/h (1 Bft) NO 40 2 min 0,000 mm 0,9 UV-I 416 W/m 1,6 C 4,7 C 9,7 km/h (2 Bft) 95,74 %
09.11.2016 13:14 4,7 C 79 % 1007,5 hPa 0,0 l/m 3,7 km/h (1 Bft) N-NO 17 2 min 0,000 mm 0,9 UV-I 433 W/m 1,4 C 4,7 C 6,4 km/h (2 Bft) 97,22 %
09.11.2016 13:16 4,8 C 79 % 1007,4 hPa 0,0 l/m 1,7 km/h (1 Bft) N-NO 17 2 min 0,000 mm 0,8 UV-I 439 W/m 1,5 C 4,8 C 3,2 km/h (1 Bft) 93,44 %
09.11.2016 13:18 4,8 C 78 % 1007,4 hPa 0,0 l/m 5,7 km/h (1 Bft) O-NO 59 2 min 0,000 mm 0,8 UV-I 423 W/m 1,3 C 4,8 C 8,0 km/h (2 Bft) 95,83 %
09.11.2016 13:20 4,9 C 79 % 1007,4 hPa 0,0 l/m 5,5 km/h (1 Bft) NO 44 2 min 0,000 mm 0,8 UV-I 424 W/m 1,6 C 4,9 C 6,4 km/h (2 Bft) 97,37 %
09.11.2016 13:22 4,9 C 77 % 1007,4 hPa 0,0 l/m 3,3 km/h (1 Bft) O-NO 78 2 min 0,000 mm 0,8 UV-I 414 W/m 1,2 C 4,9 C 6,4 km/h (2 Bft) 95,74 %
09.11.2016 13:24 4,9 C 79 % 1007,3 hPa 0,0 l/m 1,8 km/h (1 Bft) O-NO 64 2 min 0,000 mm 0,8 UV-I 428 W/m 1,6 C 4,9 C 3,2 km/h (1 Bft) 97,87 %
09.11.2016 13:26 5,1 C 80 % 1007,3 hPa 0,0 l/m 3,2 km/h (1 Bft) O-NO 73 2 min 0,000 mm 0,8 UV-I 447 W/m 1,9 C 5,1 C 8,0 km/h (2 Bft) 95,74 %
09.11.2016 13:28 5,1 C 79 % 1007,3 hPa 0,0 l/m 5,7 km/h (1 Bft) O 88 2 min 0,000 mm 0,8 UV-I 457 W/m 1,8 C 5,1 C 11,3 km/h (2 Bft) 98,11 %
09.11.2016 13:30 5,0 C 80 % 1007,3 hPa 0,0 l/m 8,2 km/h (2 Bft) NO 52 2 min 0,000 mm 0,8 UV-I 475 W/m 1,8 C 3,4 C 12,9 km/h (3 Bft) 100,00 %
09.11.2016 13:32 5,0 C 80 % 1007,3 hPa 0,0 l/m 7,1 km/h (2 Bft) O-NO 69 2 min 0,000 mm 0,8 UV-I 492 W/m 1,8 C 4,4 C 11,3 km/h (2 Bft) 100,00 %
09.11.2016 13:34 5,0 C 82 % 1007,2 hPa 0,0 l/m 6,8 km/h (2 Bft) NO 42 2 min 0,000 mm 0,7 UV-I 451 W/m 2,2 C 4,7 C 11,3 km/h (2 Bft) 95,74 %
09.11.2016 13:36 5,0 C 81 % 1007,2 hPa 0,0 l/m 9,0 km/h (2 Bft) O-NO 75 2 min 0,000 mm 0,7 UV-I 420 W/m 2,0 C 2,8 C 14,5 km/h (3 Bft) 94,74 %
09.11.2016 13:38 4,9 C 80 % 1007,2 hPa 0,0 l/m 11,4 km/h (2 Bft) NO 52 2 min 0,000 mm 0,7 UV-I 408 W/m 1,7 C 1,0 C 17,7 km/h (3 Bft) 98,31 %
09.11.2016 13:40 4,9 C 80 % 1007,2 hPa 0,0 l/m 7,3 km/h (2 Bft) NO 56 2 min 0,000 mm 0,7 UV-I 391 W/m 1,7 C 4,1 C 11,3 km/h (2 Bft) 100,00 %
09.11.2016 13:42 4,9 C 80 % 1007,2 hPa 0,0 l/m 6,5 km/h (2 Bft) NO 38 2 min 0,000 mm 0,7 UV-I 384 W/m 1,7 C 4,8 C 11,3 km/h (2 Bft) 97,87 %
09.11.2016 13:44 4,9 C 80 % 1007,2 hPa 0,0 l/m 5,1 km/h (1 Bft) NO 37 2 min 0,000 mm 0,7 UV-I 337 W/m 1,7 C 4,9 C 8,0 km/h (2 Bft) 100,00 %
09.11.2016 13:46 4,9 C 80 % 1007,2 hPa 0,0 l/m 7,2 km/h (2 Bft) NO 51 2 min 0,000 mm 0,7 UV-I 334 W/m 1,7 C 4,2 C 11,3 km/h (2 Bft) 100,00 %
09.11.2016 13:48 4,9 C 80 % 1007,2 hPa 0,0 l/m 10,2 km/h (2 Bft) O-NO 69 2 min 0,000 mm 0,6 UV-I 333 W/m 1,7 C 1,8 C 16,1 km/h (3 Bft) 100,00 %
09.11.2016 13:50 4,8 C 79 % 1007,2 hPa 0,0 l/m 9,0 km/h (2 Bft) NO 51 2 min 0,000 mm 0,6 UV-I 316 W/m 1,5 C 2,6 C 14,5 km/h (3 Bft) 100,00 %
09.11.2016 13:52 4,7 C 80 % 1007,2 hPa 0,0 l/m 6,0 km/h (2 Bft) O-NO 64 2 min 0,000 mm 0,6 UV-I 340 W/m 1,6 C 4,7 C 11,3 km/h (2 Bft) 95,74 %
09.11.2016 13:54 4,7 C 80 % 1007,1 hPa 0,0 l/m 9,0 km/h (2 Bft) O-NO 59 2 min 0,000 mm 0,6 UV-I 338 W/m 1,6 C 2,5 C 16,1 km/h (3 Bft) 100,00 %
09.11.2016 13:56 4,7 C 81 % 1007,1 hPa 0,0 l/m 9,0 km/h (2 Bft) NO 44 2 min 0,000 mm 0,6 UV-I 339 W/m 1,7 C 2,5 C 14,5 km/h (3 Bft) 100,00 %
09.11.2016 13:58 4,8 C 80 % 1007,1 hPa 0,0 l/m 10,3 km/h (2 Bft) O-NO 65 2 min 0,000 mm 0,6 UV-I 328 W/m 1,6 C 1,6 C 14,5 km/h (3 Bft) 98,11 %
09.11.2016 14:00 4,8 C 80 % 1007,1 hPa 0,0 l/m 8,6 km/h (2 Bft) NO 53 2 min 0,000 mm 0,6 UV-I 306 W/m 1,6 C 2,9 C 12,9 km/h (3 Bft) 100,00 %
09.11.2016 14:02 4,7 C 81 % 1007,1 hPa 0,0 l/m 9,9 km/h (2 Bft) NO 55 2 min 0,178 mm 0,5 UV-I 273 W/m 1,7 C 1,8 C 14,5 km/h (3 Bft) 95,92 %
09.11.2016 14:04 4,6 C 80 % 1007,1 hPa 0,0 l/m 8,8 km/h (2 Bft) NO 52 2 min 0,000 mm 0,5 UV-I 257 W/m 1,5 C 2,5 C 14,5 km/h (3 Bft) 100,00 %
09.11.2016 14:06 4,6 C 80 % 1007,0 hPa 0,0 l/m 8,0 km/h (2 Bft) O-NO 60 2 min 0,000 mm 0,5 UV-I 269 W/m 1,5 C 3,2 C 12,9 km/h (3 Bft) 100,00 %
09.11.2016 14:08 4,5 C 81 % 1007,1 hPa 0,0 l/m 8,0 km/h (2 Bft) O-NO 67 2 min 0,000 mm 0,5 UV-I 261 W/m 1,5 C 3,1 C 12,9 km/h (3 Bft) 97,87 %
09.11.2016 14:10 4,6 C 82 % 1007,0 hPa 0,0 l/m 6,0 km/h (2 Bft) O-NO 58 2 min 0,000 mm 0,5 UV-I 270 W/m 1,8 C 4,6 C 8,0 km/h (2 Bft) 97,87 %
09.11.2016 14:12 4,6 C 81 % 1007,1 hPa 0,0 l/m 8,6 km/h (2 Bft) NO 49 2 min 0,000 mm 0,5 UV-I 219 W/m 1,6 C 2,7 C 12,9 km/h (3 Bft) 97,37 %
09.11.2016 14:14 4,6 C 82 % 1007,1 hPa 0,0 l/m 9,4 km/h (2 Bft) NO 51 2 min 0,000 mm 0,5 UV-I 200 W/m 1,8 C 2,1 C 14,5 km/h (3 Bft) 100,00 %
09.11.2016 14:16 4,5 C 81 % 1007,1 hPa 0,0 l/m 10,3 km/h (2 Bft) NO 45 2 min 0,000 mm 0,5 UV-I 208 W/m 1,5 C 1,3 C 14,5 km/h (3 Bft) 97,87 %
09.11.2016 14:18 4,4 C 81 % 1007,0 hPa 0,0 l/m 8,0 km/h (2 Bft) O-NO 67 2 min 0,000 mm 0,4 UV-I 247 W/m 1,4 C 3,0 C 12,9 km/h (3 Bft) 100,00 %
09.11.2016 14:20 4,4 C 83 % 1007,0 hPa 0,0 l/m 12,3 km/h (3 Bft) O-NO 57 2 min 0,000 mm 0,0 UV-I 204 W/m 1,8 C -0,1 C 17,7 km/h (3 Bft) 97,87 %
09.11.2016 14:22 4,4 C 81 % 1007,0 hPa 0,0 l/m 9,3 km/h (2 Bft) N-NO 33 2 min 0,000 mm 0,0 UV-I 211 W/m 1,4 C 1,9 C 14,5 km/h (3 Bft) 95,74 %
09.11.2016 14:24 4,4 C 82 % 1007,0 hPa 0,0 l/m 8,8 km/h (2 Bft) O-NO 65 2 min 0,000 mm 0,0 UV-I 219 W/m 1,6 C 2,3 C 12,9 km/h (3 Bft) 100,00 %
09.11.2016 14:26 4,4 C 82 % 1007,0 hPa 0,0 l/m 9,3 km/h (2 Bft) O-NO 75 2 min 0,000 mm 0,0 UV-I 242 W/m 1,6 C 1,9 C 12,9 km/h (3 Bft) 100,00 %
09.11.2016 14:28 4,5 C 82 % 1007,0 hPa 0,0 l/m 8,5 km/h (2 Bft) NO 54 2 min 0,000 mm 0,0 UV-I 230 W/m 1,7 C 2,7 C 14,5 km/h (3 Bft) 100,00 %
09.11.2016 14:30 4,5 C 82 % 1006,9 hPa 0,0 l/m 10,4 km/h (2 Bft) O-NO 59 2 min 0,000 mm 0,0 UV-I 229 W/m 1,7 C 1,2 C 16,1 km/h (3 Bft) 100,00 %
09.11.2016 14:32 4,4 C 81 % 1006,9 hPa 0,0 l/m 8,6 km/h (2 Bft) O-NO 63 2 min 0,000 mm 0,0 UV-I 230 W/m 1,4 C 2,5 C 14,5 km/h (3 Bft) 100,00 %
09.11.2016 14:34 4,4 C 82 % 1006,9 hPa 0,0 l/m 9,6 km/h (2 Bft) NO 38 2 min 0,000 mm 0,0 UV-I 235 W/m 1,6 C 1,7 C 14,5 km/h (3 Bft) 95,92 %
09.11.2016 14:36 4,4 C 82 % 1006,9 hPa 0,0 l/m 8,8 km/h (2 Bft) N-NO 17 2 min 0,000 mm 0,0 UV-I 221 W/m 1,6 C 2,3 C 16,1 km/h (3 Bft) 97,87 %
09.11.2016 14:38 4,4 C 84 % 1006,9 hPa 0,0 l/m 11,7 km/h (2 Bft) O-NO 73 2 min 0,000 mm 0,0 UV-I 223 W/m 1,9 C 0,3 C 19,3 km/h (3 Bft) 97,87 %
09.11.2016 14:40 4,3 C 84 % 1006,8 hPa 0,0 l/m 10,5 km/h (2 Bft) O-NO 60 2 min 0,000 mm 0,0 UV-I 192 W/m 1,8 C 0,9 C 19,3 km/h (3 Bft) 91,49 %
09.11.2016 14:42 4,2 C 85 % 1006,8 hPa 0,0 l/m 9,8 km/h (2 Bft) N 10 2 min 0,000 mm 0,0 UV-I 203 W/m 1,9 C 1,3 C 14,5 km/h (3 Bft) 97,87 %
09.11.2016 14:44 4,2 C 85 % 1006,8 hPa 0,0 l/m 9,0 km/h (2 Bft) N 355 2 min 0,000 mm 0,0 UV-I 225 W/m 1,9 C 1,9 C 16,1 km/h (3 Bft) 97,14 %
09.11.2016 14:46 4,2 C 85 % 1006,7 hPa 0,0 l/m 7,4 km/h (2 Bft) O-NO 65 2 min 0,000 mm 0,0 UV-I 217 W/m 1,9 C 3,3 C 12,9 km/h (3 Bft) 96,00 %
09.11.2016 14:48 4,3 C 83 % 1006,8 hPa 0,0 l/m 8,5 km/h (2 Bft) O-NO 65 2 min 0,000 mm 0,0 UV-I 193 W/m 1,7 C 2,5 C 14,5 km/h (3 Bft) 98,31 %
09.11.2016 14:50 4,3 C 84 % 1006,7 hPa 0,0 l/m 8,9 km/h (2 Bft) NO 45 2 min 0,000 mm 0,0 UV-I 200 W/m 1,8 C 2,1 C 14,5 km/h (3 Bft) 94,74 %
09.11.2016 14:52 4,2 C 85 % 1006,7 hPa 0,0 l/m 9,1 km/h (2 Bft) N-NO 19 2 min 0,000 mm 0,0 UV-I 176 W/m 1,9 C 1,9 C 14,5 km/h (3 Bft) 97,87 %
09.11.2016 14:54 4,1 C 85 % 1006,7 hPa 0,0 l/m 9,9 km/h (2 Bft) NO 45 2 min 0,000 mm 0,0 UV-I 167 W/m 1,8 C 1,2 C 17,7 km/h (3 Bft) 97,87 %
09.11.2016 14:56 4,0 C 85 % 1006,7 hPa 0,0 l/m 12,1 km/h (2 Bft) N-NO 31 2 min 0,000 mm 0,0 UV-I 187 W/m 1,7 C -0,5 C 16,1 km/h (3 Bft) 97,87 %
09.11.2016 14:58 3,9 C 85 % 1006,7 hPa 0,0 l/m 10,6 km/h (2 Bft) NO 43 2 min 0,000 mm 0,0 UV-I 183 W/m 1,6 C 0,4 C 16,1 km/h (3 Bft) 97,87 %
09.11.2016 15:00 3,9 C 85 % 1006,7 hPa 0,0 l/m 9,7 km/h (2 Bft) O-NO 71 2 min 0,102 mm 0,0 UV-I 172 W/m 1,6 C 1,1 C 16,1 km/h (3 Bft) 96,00 %
09.11.2016 15:02 3,9 C 83 % 1006,7 hPa 0,0 l/m 10,4 km/h (2 Bft) NO 40 2 min 0,000 mm 0,0 UV-I 158 W/m 1,3 C 0,6 C 17,7 km/h (3 Bft) 95,74 %
09.11.2016 15:04 4,0 C 83 % 1006,7 hPa 0,0 l/m 12,5 km/h (3 Bft) O-NO 59 2 min 0,000 mm 0,0 UV-I 156 W/m 1,4 C -0,7 C 16,1 km/h (3 Bft) 97,87 %
09.11.2016 15:06 4,0 C 82 % 1006,7 hPa 0,0 l/m 11,4 km/h (2 Bft) NO 35 2 min 0,000 mm 0,0 UV-I 156 W/m 1,2 C -0,0 C 16,1 km/h (3 Bft) 95,74 %
09.11.2016 15:08 3,9 C 83 % 1006,6 hPa 0,0 l/m 11,6 km/h (2 Bft) O-NO 66 2 min 0,000 mm 0,0 UV-I 145 W/m 1,3 C -0,3 C 16,1 km/h (3 Bft) 97,87 %
09.11.2016 15:10 3,9 C 83 % 1006,6 hPa 0,0 l/m 12,0 km/h (2 Bft) NO 49 2 min 0,000 mm 0,0 UV-I 134 W/m 1,3 C -0,5 C 17,7 km/h (3 Bft) 97,87 %
09.11.2016 15:12 3,9 C 83 % 1006,6 hPa 0,0 l/m 10,5 km/h (2 Bft) O-NO 74 2 min 0,000 mm 0,0 UV-I 127 W/m 1,3 C 0,5 C 16,1 km/h (3 Bft) 97,44 %
09.11.2016 15:15 3,9 C 84 % 1006,6 hPa 0,0 l/m 10,0 km/h (2 Bft) O-NO 59 3 min 0,000 mm 0,0 UV-I 117 W/m 1,4 C 0,9 C 16,1 km/h (3 Bft) 97,26 %
09.11.2016 15:16 3,8 C 84 % 1006,6 hPa 0,0 l/m 9,9 km/h (2 Bft) O-NO 67 1 min 0,000 mm 0,0 UV-I 120 W/m 1,4 C 0,8 C 12,9 km/h (3 Bft) 100,00 %
09.11.2016 15:20 3,8 C 83 % 1006,5 hPa 0,0 l/m 9,9 km/h (2 Bft) NO 46 4 min 0,000 mm 0,0 UV-I 121 W/m 1,2 C 0,8 C 16,1 km/h (3 Bft) 95,74 %
09.11.2016 15:22 3,8 C 83 % 1006,5 hPa 0,0 l/m 11,8 km/h (2 Bft) O-NO 60 2 min 0,000 mm 0,0 UV-I 117 W/m 1,2 C -0,5 C 16,1 km/h (3 Bft) 95,74 %
09.11.2016 15:24 3,8 C 83 % 1006,6 hPa 0,0 l/m 9,1 km/h (2 Bft) O-NO 65 2 min 0,000 mm 0,0 UV-I 111 W/m 1,2 C 1,4 C 12,9 km/h (3 Bft) 95,74 %
09.11.2016 15:26 3,8 C 83 % 1006,6 hPa 0,0 l/m 7,6 km/h (2 Bft) NO 54 2 min 0,000 mm 0,0 UV-I 117 W/m 1,2 C 2,7 C 12,9 km/h (3 Bft) 100,00 %
09.11.2016 15:28 3,8 C 84 % 1006,6 hPa 0,0 l/m 7,3 km/h (2 Bft) O-NO 69 2 min 0,000 mm 0,0 UV-I 120 W/m 1,4 C 3,0 C 9,7 km/h (2 Bft) 97,87 %
09.11.2016 15:30 3,8 C 84 % 1006,6 hPa 0,0 l/m 8,0 km/h (2 Bft) O-NO 57 2 min 0,000 mm 0,0 UV-I 116 W/m 1,4 C 2,3 C 12,9 km/h (3 Bft) 97,87 %
09.11.2016 15:32 3,8 C 84 % 1006,6 hPa 0,0 l/m 8,6 km/h (2 Bft) NO 44 2 min 0,000 mm 0,0 UV-I 112 W/m 1,4 C 1,8 C 12,9 km/h (3 Bft) 100,00 %
09.11.2016 15:34 3,7 C 84 % 1006,6 hPa 0,0 l/m 9,4 km/h (2 Bft) O-NO 69 2 min 0,000 mm 0,0 UV-I 107 W/m 1,3 C 1,1 C 16,1 km/h (3 Bft) 97,87 %
09.11.2016 15:36 3,7 C 84 % 1006,6 hPa 0,0 l/m 10,7 km/h (2 Bft) O-NO 71 2 min 0,000 mm 0,0 UV-I 101 W/m 1,3 C 0,1 C 14,5 km/h (3 Bft) 100,00 %
09.11.2016 15:38 3,7 C 84 % 1006,6 hPa 0,0 l/m 8,6 km/h (2 Bft) NO 44 2 min 0,000 mm 0,0 UV-I 88 W/m 1,3 C 1,7 C 12,9 km/h (3 Bft) 100,00 %
09.11.2016 15:40 3,6 C 83 % 1006,6 hPa 0,0 l/m 9,9 km/h (2 Bft) O-NO 74 2 min 0,000 mm 0,0 UV-I 80 W/m 1,0 C 0,6 C 16,1 km/h (3 Bft) 97,87 %
09.11.2016 15:42 3,6 C 83 % 1006,5 hPa 0,0 l/m 9,1 km/h (2 Bft) O-NO 62 2 min 0,000 mm 0,0 UV-I 74 W/m 1,0 C 1,2 C 11,3 km/h (2 Bft) 97,87 %
09.11.2016 15:44 3,6 C 84 % 1006,5 hPa 0,0 l/m 10,9 km/h (2 Bft) NO 55 2 min 0,000 mm 0,0 UV-I 70 W/m 1,2 C -0,1 C 16,1 km/h (3 Bft) 98,00 %
09.11.2016 15:46 3,5 C 84 % 1006,5 hPa 0,0 l/m 9,7 km/h (2 Bft) NO 40 2 min 0,000 mm 0,0 UV-I 67 W/m 1,1 C 0,6 C 14,5 km/h (3 Bft) 100,00 %
09.11.2016 15:48 3,5 C 84 % 1006,5 hPa 0,0 l/m 7,4 km/h (2 Bft) O-NO 61 2 min 0,000 mm 0,0 UV-I 62 W/m 1,1 C 2,6 C 9,7 km/h (2 Bft) 100,00 %
09.11.2016 15:50 3,4 C 84 % 1006,5 hPa 0,0 l/m 8,3 km/h (2 Bft) O-NO 67 2 min 0,000 mm 0,0 UV-I 54 W/m 1,0 C 1,7 C 14,5 km/h (3 Bft) 100,00 %
09.11.2016 15:52 3,3 C 85 % 1006,4 hPa 0,0 l/m 6,7 km/h (2 Bft) NO 44 0 min 0,000 mm 0,0 UV-I 47 W/m 1,0 C 3,0 C 9,7 km/h (2 Bft) 100,00 %
09.11.2016 15:54 3,3 C 85 % 1006,4 hPa 0,0 l/m 7,8 km/h (2 Bft) NO 55 0 min 0,000 mm 0,0 UV-I 42 W/m 1,0 C 2,0 C 11,3 km/h (2 Bft) 97,87 %
09.11.2016 15:56 3,2 C 85 % 1006,4 hPa 0,0 l/m 6,8 km/h (2 Bft) NO 56 0 min 0,000 mm 0,0 UV-I 37 W/m 0,9 C 2,8 C 9,7 km/h (2 Bft) 100,00 %
09.11.2016 15:58 3,2 C 85 % 1006,4 hPa 0,0 l/m 6,7 km/h (2 Bft) NO 55 0 min 0,000 mm 0,0 UV-I 33 W/m 0,9 C 2,9 C 9,7 km/h (2 Bft) 100,00 %
09.11.2016 16:00 3,2 C 85 % 1006,4 hPa 0,0 l/m 5,9 km/h (2 Bft) NO 51 0 min 0,000 mm 0,0 UV-I 32 W/m 0,9 C 3,2 C 9,7 km/h (2 Bft) 97,87 %
09.11.2016 16:02 3,2 C 85 % 1006,4 hPa 0,0 l/m 6,4 km/h (2 Bft) NO 46 0 min 0,050 mm 0,0 UV-I 30 W/m 0,9 C 3,2 C 9,7 km/h (2 Bft) 97,87 %
09.11.2016 16:04 3,1 C 85 % 1006,3 hPa 0,0 l/m 5,2 km/h (1 Bft) NO 42 0 min 0,000 mm 0,0 UV-I 30 W/m 0,8 C 3,1 C 8,0 km/h (2 Bft) 100,00 %
09.11.2016 16:06 3,1 C 86 % 1006,3 hPa 0,0 l/m 7,5 km/h (2 Bft) N-NO 14 2 min 0,000 mm 0,0 UV-I 34 W/m 1,0 C 2,1 C 12,9 km/h (3 Bft) 95,74 %
09.11.2016 16:09 2,8 C 87 % 1006,3 hPa 0,0 l/m 7,9 km/h (2 Bft) NO 34 3 min 0,000 mm 0,0 UV-I 29 W/m 0,9 C 1,4 C 11,3 km/h (2 Bft) 98,57 %
09.11.2016 16:10 2,8 C 87 % 1006,3 hPa 0,0 l/m 6,8 km/h (2 Bft) NO 45 1 min 0,000 mm 0,0 UV-I 26 W/m 0,9 C 2,4 C 8,0 km/h (2 Bft) 95,83 %
09.11.2016 16:12 2,7 C 87 % 1006,3 hPa 0,0 l/m 6,4 km/h (2 Bft) NO 50 2 min 0,000 mm 0,0 UV-I 25 W/m 0,8 C 2,7 C 8,0 km/h (2 Bft) 100,00 %
09.11.2016 16:14 2,7 C 88 % 1006,3 hPa 0,0 l/m 5,0 km/h (1 Bft) NO 54 2 min 0,000 mm 0,0 UV-I 23 W/m 0,9 C 2,7 C 6,4 km/h (2 Bft) 98,00 %
09.11.2016 16:16 2,7 C 88 % 1006,3 hPa 0,0 l/m 5,0 km/h (1 Bft) O-NO 59 2 min 0,000 mm 0,0 UV-I 22 W/m 0,9 C 2,7 C 8,0 km/h (2 Bft) 100,00 %
09.11.2016 16:18 2,7 C 87 % 1006,2 hPa 0,0 l/m 4,4 km/h (1 Bft) NO 44 2 min 0,000 mm 0,0 UV-I 19 W/m 0,8 C 2,7 C 8,0 km/h (2 Bft) 100,00 %
09.11.2016 16:20 2,7 C 87 % 1006,2 hPa 0,0 l/m 5,2 km/h (1 Bft) NO 43 2 min 0,000 mm 0,0 UV-I 18 W/m 0,8 C 2,7 C 8,0 km/h (2 Bft) 97,87 %
09.11.2016 16:22 2,7 C 87 % 1006,2 hPa 0,0 l/m 4,2 km/h (1 Bft) NO 46 0 min 0,000 mm 0,0 UV-I 17 W/m 0,8 C 2,7 C 8,0 km/h (2 Bft) 100,00 %
09.11.2016 16:24 2,7 C 87 % 1006,2 hPa 0,0 l/m 4,4 km/h (1 Bft) O-NO 60 0 min 0,000 mm 0,0 UV-I 14 W/m 0,8 C 2,7 C 6,4 km/h (2 Bft) 100,00 %
09.11.2016 16:26 2,7 C 87 % 1006,2 hPa 0,0 l/m 4,3 km/h (1 Bft) NO 40 0 min 0,000 mm 0,0 UV-I 12 W/m 0,8 C 2,7 C 6,4 km/h (2 Bft) 100,00 %
09.11.2016 16:28 2,6 C 87 % 1006,2 hPa 0,0 l/m 4,8 km/h (1 Bft) NO 38 0 min 0,000 mm 0,0 UV-I 12 W/m 0,7 C 2,6 C 6,4 km/h (2 Bft) 100,00 %
09.11.2016 16:30 2,5 C 88 % 1006,2 hPa 0,0 l/m 4,8 km/h (1 Bft) NO 46 0 min 0,000 mm 0,0 UV-I 11 W/m 0,7 C 2,5 C 6,4 km/h (2 Bft) 97,87 %
09.11.2016 16:32 2,4 C 88 % 1006,2 hPa 0,0 l/m 4,3 km/h (1 Bft) NO 42 0 min 0,000 mm 0,0 UV-I 9 W/m 0,6 C 2,4 C 6,4 km/h (2 Bft) 100,00 %
09.11.2016 16:34 2,3 C 88 % 1006,2 hPa 0,0 l/m 4,3 km/h (1 Bft) NO 42 0 min 0,000 mm 0,0 UV-I 7 W/m 0,5 C 2,3 C 6,4 km/h (2 Bft) 95,74 %
09.11.2016 16:36 2,3 C 88 % 1006,2 hPa 0,0 l/m 4,7 km/h (1 Bft) NO 50 0 min 0,000 mm 0,0 UV-I 6 W/m 0,5 C 2,3 C 8,0 km/h (2 Bft) 100,00 %
09.11.2016 16:38 2,2 C 88 % 1006,2 hPa 0,0 l/m 3,5 km/h (1 Bft) O-NO 65 0 min 0,000 mm 0,0 UV-I 5 W/m 0,4 C 2,2 C 4,8 km/h (1 Bft) 95,74 %
09.11.2016 16:40 2,2 C 89 % 1006,1 hPa 0,0 l/m 4,0 km/h (1 Bft) O-NO 65 0 min 0,000 mm 0,0 UV-I 5 W/m 0,6 C 2,2 C 6,4 km/h (2 Bft) 100,00 %
09.11.2016 16:42 2,1 C 89 % 1006,1 hPa 0,0 l/m 4,4 km/h (1 Bft) NO 56 0 min 0,000 mm 0,0 UV-I 5 W/m 0,5 C 2,1 C 6,4 km/h (2 Bft) 100,00 %
09.11.2016 16:44 2,0 C 89 % 1006,2 hPa 0,0 l/m 4,6 km/h (1 Bft) O-NO 75 0 min 0,000 mm 0,0 UV-I 5 W/m 0,4 C 2,0 C 8,0 km/h (2 Bft) 100,00 %
09.11.2016 16:46 2,0 C 89 % 1006,1 hPa 0,0 l/m 5,0 km/h (1 Bft) O-NO 61 0 min 0,000 mm 0,0 UV-I 2 W/m 0,4 C 2,0 C 6,4 km/h (2 Bft) 97,87 %
09.11.2016 16:48 2,0 C 89 % 1006,0 hPa 0,0 l/m 6,1 km/h (2 Bft) O-NO 59 0 min 0,000 mm 0,0 UV-I 0 W/m 0,4 C 2,0 C 9,7 km/h (2 Bft) 100,00 %
09.11.2016 16:50 2,0 C 89 % 1005,9 hPa 0,0 l/m 4,7 km/h (1 Bft) O-NO 63 0 min 0,000 mm 0,0 UV-I 0 W/m 0,4 C 2,0 C 6,4 km/h (2 Bft) 97,87 %
09.11.2016 16:52 2,0 C 89 % 1006,0 hPa 0,0 l/m 4,3 km/h (1 Bft) NO 46 0 min 0,000 mm 0,0 UV-I 0 W/m 0,4 C 2,0 C 6,4 km/h (2 Bft) 100,00 %
09.11.2016 16:54 2,0 C 89 % 1006,0 hPa 0,0 l/m 3,1 km/h (1 Bft) NO 52 0 min 0,000 mm 0,0 UV-I 0 W/m 0,4 C 2,0 C 4,8 km/h (1 Bft) 96,00 %
09.11.2016 16:56 1,9 C 89 % 1006,0 hPa 0,0 l/m 3,5 km/h (1 Bft) O-NO 71 0 min 0,000 mm 0,0 UV-I 0 W/m 0,3 C 1,9 C 4,8 km/h (1 Bft) 100,00 %
09.11.2016 16:58 1,8 C 89 % 1006,1 hPa 0,0 l/m 3,9 km/h (1 Bft) NO 36 0 min 0,000 mm 0,0 UV-I 0 W/m 0,2 C 1,8 C 6,4 km/h (2 Bft) 100,00 %
09.11.2016 17:00 1,8 C 89 % 1006,1 hPa 0,0 l/m 3,4 km/h (1 Bft) NO 45 0 min 0,000 mm 0,0 UV-I 0 W/m 0,2 C 1,8 C 4,8 km/h (1 Bft) 97,87 %
09.11.2016 17:03 1,7 C 90 % 1006,1 hPa 0,0 l/m 3,6 km/h (1 Bft) NO 45 0 min 0,000 mm 0,0 UV-I 0 W/m 0,2 C 1,7 C 4,8 km/h (1 Bft) 96,92 %
09.11.2016 17:04 1,7 C 90 % 1006,1 hPa 0,0 l/m 3,3 km/h (1 Bft) NO 45 0 min 0,000 mm 0,0 UV-I 0 W/m 0,2 C 1,7 C 4,8 km/h (1 Bft) 100,00 %
09.11.2016 17:06 1,6 C 90 % 1006,1 hPa 0,0 l/m 4,2 km/h (1 Bft) NO 44 0 min 0,000 mm 0,0 UV-I 0 W/m 0,1 C 1,6 C 6,4 km/h (2 Bft) 95,74 %
09.11.2016 17:08 1,6 C 90 % 1006,1 hPa 0,0 l/m 2,7 km/h (1 Bft) NO 44 0 min 0,000 mm 0,0 UV-I 0 W/m 0,1 C 1,6 C 3,2 km/h (1 Bft) 97,87 %
09.11.2016 17:10 1,5 C 90 % 1006,1 hPa 0,0 l/m 2,7 km/h (1 Bft) NO 44 0 min 0,000 mm 0,0 UV-I 0 W/m 0,0 C 1,5 C 4,8 km/h (1 Bft) 98,00 %
09.11.2016 17:13 1,4 C 91 % 1006,1 hPa 0,0 l/m 2,1 km/h (1 Bft) NO 44 0 min 0,000 mm 0,0 UV-I 0 W/m 0,1 C 1,4 C 3,2 km/h (1 Bft) 95,95 %
09.11.2016 17:14 1,3 C 91 % 1006,1 hPa 0,0 l/m 2,1 km/h (1 Bft) NO 44 0 min 0,000 mm 0,0 UV-I 0 W/m -0,0 C 1,3 C 3,2 km/h (1 Bft) 100,00 %
09.11.2016 17:16 1,3 C 91 % 1006,1 hPa 0,0 l/m 1,7 km/h (1 Bft) NO 44 0 min 0,000 mm 0,0 UV-I 0 W/m -0,0 C 1,3 C 3,2 km/h (1 Bft) 95,74 %
09.11.2016 17:18 1,3 C 91 % 1006,1 hPa 0,0 l/m 1,7 km/h (1 Bft) NO 44 0 min 0,000 mm 0,0 UV-I 0 W/m -0,0 C 1,3 C 3,2 km/h (1 Bft) 93,62 %
09.11.2016 17:20 1,2 C 92 % 1006,1 hPa 0,0 l/m 2,0 km/h (1 Bft) NO 44 0 min 0,000 mm 0,0 UV-I 0 W/m 0,0 C 1,2 C 3,2 km/h (1 Bft) 93,62 %
09.11.2016 17:22 1,2 C 92 % 1006,2 hPa 0,0 l/m 1,9 km/h (1 Bft) NO 44 0 min 0,000 mm 0,0 UV-I 0 W/m 0,0 C 1,2 C 3,2 km/h (1 Bft) 95,74 %
09.11.2016 17:24 1,2 C 93 % 1006,1 hPa 0,0 l/m 1,5 km/h (1 Bft) NO 44 0 min 0,000 mm 0,0 UV-I 0 W/m 0,2 C 1,2 C 3,2 km/h (1 Bft) 97,87 %
09.11.2016 17:26 1,1 C 93 % 1006,2 hPa 0,0 l/m 0,9 km/h (0 Bft) NO 44 0 min 0,000 mm 0,0 UV-I 0 W/m 0,1 C 1,1 C 3,2 km/h (1 Bft) 95,74 %
09.11.2016 17:28 1,1 C 93 % 1006,1 hPa 0,0 l/m 0,8 km/h (0 Bft) NO 44 0 min 0,000 mm 0,0 UV-I 0 W/m 0,1 C 1,1 C 1,6 km/h (1 Bft) 98,00 %
09.11.2016 17:31 0,9 C 93 % 1006,2 hPa 0,0 l/m 0,4 km/h (0 Bft) NO 44 0 min 0,000 mm 0,0 UV-I 0 W/m -0,1 C 0,9 C 1,6 km/h (1 Bft) 97,18 %
09.11.2016 17:32 0,9 C 93 % 1006,2 hPa 0,0 l/m 0,0 km/h (0 Bft) NO 44 0 min 0,000 mm 0,0 UV-I 0 W/m -0,1 C 0,9 C 0,0 km/h (0 Bft) 100,00 %
09.11.2016 17:34 0,9 C 93 % 1006,2 hPa 0,0 l/m 1,0 km/h (0 Bft) NO 44 0 min 0,000 mm 0,0 UV-I 0 W/m -0,1 C 0,9 C 3,2 km/h (1 Bft) 95,74 %
09.11.2016 17:36 0,8 C 93 % 1006,2 hPa 0,0 l/m 1,2 km/h (1 Bft) NO 44 0 min 0,000 mm 0,0 UV-I 0 W/m -0,2 C 0,8 C 1,6 km/h (1 Bft) 95,74 %
09.11.2016 17:38 0,7 C 93 % 1006,1 hPa 0,0 l/m 0,7 km/h (0 Bft) NO 44 0 min 0,000 mm 0,0 UV-I 0 W/m -0,3 C 0,7 C 3,2 km/h (1 Bft) 97,83 %
09.11.2016 17:40 0,6 C 93 % 1006,1 hPa 0,0 l/m 1,6 km/h (1 Bft) NO 44 0 min 0,000 mm 0,0 UV-I 0 W/m -0,4 C 0,6 C 3,2 km/h (1 Bft) 97,87 %
09.11.2016 17:42 0,6 C 94 % 1006,1 hPa 0,0 l/m 2,6 km/h (1 Bft) NO 44 0 min 0,000 mm 0,0 UV-I 0 W/m -0,3 C 0,6 C 3,2 km/h (1 Bft) 95,74 %
09.11.2016 17:44 0,5 C 94 % 1006,1 hPa 0,0 l/m 2,6 km/h (1 Bft) NO 44 0 min 0,000 mm 0,0 UV-I 0 W/m -0,4 C 0,5 C 3,2 km/h (1 Bft) 95,83 %
09.11.2016 17:46 0,5 C 94 % 1006,1 hPa 0,0 l/m 1,5 km/h (1 Bft) NO 44 0 min 0,000 mm 0,0 UV-I 0 W/m -0,4 C 0,5 C 3,2 km/h (1 Bft) 100,00 %
09.11.2016 17:49 0,4 C 94 % 1006,1 hPa 0,0 l/m 1,4 km/h (1 Bft) NO 44 0 min 0,000 mm 0,0 UV-I 0 W/m -0,5 C 0,4 C 3,2 km/h (1 Bft) 98,59 %
09.11.2016 17:50 0,3 C 94 % 1006,1 hPa 0,0 l/m 2,1 km/h (1 Bft) NO 44 0 min 0,000 mm 0,0 UV-I 0 W/m -0,5 C 0,3 C 3,2 km/h (1 Bft) 100,00 %
09.11.2016 17:52 0,3 C 94 % 1006,1 hPa 0,0 l/m 2,2 km/h (1 Bft) NO 44 0 min 0,000 mm 0,0 UV-I 0 W/m -0,5 C 0,3 C 3,2 km/h (1 Bft) 100,00 %
09.11.2016 17:54 0,3 C 94 % 1006,1 hPa 0,0 l/m 1,4 km/h (1 Bft) NO 44 0 min 0,000 mm 0,0 UV-I 0 W/m -0,5 C 0,3 C 3,2 km/h (1 Bft) 100,00 %
09.11.2016 17:56 0,3 C 94 % 1006,1 hPa 0,0 l/m 1,8 km/h (1 Bft) NO 44 0 min 0,000 mm 0,0 UV-I 0 W/m -0,5 C 0,3 C 3,2 km/h (1 Bft) 97,87 %
09.11.2016 17:58 0,2 C 94 % 1006,1 hPa 0,0 l/m 2,6 km/h (1 Bft) NO 44 0 min 0,000 mm 0,0 UV-I 0 W/m -0,6 C 0,2 C 3,2 km/h (1 Bft) 100,00 %
09.11.2016 18:00 0,3 C 95 % 1006,1 hPa 0,0 l/m 2,9 km/h (1 Bft) NO 44 0 min 0,000 mm 0,0 UV-I 0 W/m -0,4 C 0,3 C 4,8 km/h (1 Bft) 95,74 %
09.11.2016 18:02 0,4 C 95 % 1006,0 hPa 0,0 l/m 3,0 km/h (1 Bft) NO 44 0 min 0,000 mm 0,0 UV-I 0 W/m -0,3 C 0,4 C 3,2 km/h (1 Bft) 97,56 %
09.11.2016 18:04 0,6 C 95 % 1006,0 hPa 0,0 l/m 2,4 km/h (1 Bft) NO 44 0 min 0,000 mm 0,0 UV-I 0 W/m -0,1 C 0,6 C 3,2 km/h (1 Bft) 97,87 %
09.11.2016 18:06 0,7 C 95 % 1006,0 hPa 0,0 l/m 1,9 km/h (1 Bft) NO 44 0 min 0,000 mm 0,0 UV-I 0 W/m -0,0 C 0,7 C 3,2 km/h (1 Bft) 100,00 %
09.11.2016 18:08 0,8 C 95 % 1006,0 hPa 0,0 l/m 0,2 km/h (0 Bft) NO 44 0 min 0,000 mm 0,0 UV-I 0 W/m 0,1 C 0,8 C 1,6 km/h (1 Bft) 100,00 %
09.11.2016 18:10 0,9 C 94 % 1006,0 hPa 0,0 l/m 0,0 km/h (0 Bft) NO 44 0 min 0,000 mm 0,0 UV-I 0 W/m 0,0 C 0,9 C 0,0 km/h (0 Bft) 100,00 %
09.11.2016 18:12 0,9 C 94 % 1006,0 hPa 0,0 l/m 0,0 km/h (0 Bft) NO 44 0 min 0,000 mm 0,0 UV-I 0 W/m 0,0 C 0,9 C 0,0 km/h (0 Bft) 100,00 %
09.11.2016 18:14 0,9 C 94 % 1006,0 hPa 0,0 l/m 0,0 km/h (0 Bft) NO 44 0 min 0,000 mm 0,0 UV-I 0 W/m 0,0 C 0,9 C 0,0 km/h (0 Bft) 100,00 %
09.11.2016 18:16 0,8 C 94 % 1006,0 hPa 0,0 l/m 0,1 km/h (0 Bft) NO 44 0 min 0,000 mm 0,0 UV-I 0 W/m -0,1 C 0,8 C 1,6 km/h (1 Bft) 100,00 %
09.11.2016 18:18 0,7 C 94 % 1006,0 hPa 0,0 l/m 0,2 km/h (0 Bft) NO 44 0 min 0,000 mm 0,0 UV-I 0 W/m -0,2 C 0,7 C 1,6 km/h (1 Bft) 100,00 %
09.11.2016 18:20 0,7 C 94 % 1005,9 hPa 0,0 l/m 0,2 km/h (0 Bft) NO 44 0 min 0,000 mm 0,0 UV-I 0 W/m -0,2 C 0,7 C 1,6 km/h (1 Bft) 100,00 %
09.11.2016 18:22 0,7 C 94 % 1005,9 hPa 0,0 l/m 0,0 km/h (0 Bft) NO 44 0 min 0,000 mm 0,0 UV-I 0 W/m -0,2 C 0,7 C 0,0 km/h (0 Bft) 100,00 %
09.11.2016 18:24 0,6 C 95 % 1005,9 hPa 0,0 l/m 0,0 km/h (0 Bft) NO 44 0 min 0,000 mm 0,0 UV-I 0 W/m -0,1 C 0,6 C 1,6 km/h (1 Bft) 97,87 %
09.11.2016 18:26 0,6 C 95 % 1005,9 hPa 0,0 l/m 0,0 km/h (0 Bft) NO 44 0 min 0,000 mm 0,0 UV-I 0 W/m -0,1 C 0,6 C 0,0 km/h (0 Bft) 98,00 %
09.11.2016 18:28 0,6 C 94 % 1005,9 hPa 0,0 l/m 0,2 km/h (0 Bft) NO 44 0 min 0,000 mm 0,0 UV-I 0 W/m -0,3 C 0,6 C 1,6 km/h (1 Bft) 97,87 %
09.11.2016 18:30 0,5 C 95 % 1005,9 hPa 0,0 l/m 0,0 km/h (0 Bft) NO 44 0 min 0,000 mm 0,0 UV-I 0 W/m -0,2 C 0,5 C 0,0 km/h (0 Bft) 100,00 %
09.11.2016 18:32 0,6 C 95 % 1005,9 hPa 0,0 l/m 0,0 km/h (0 Bft) NO 44 0 min 0,000 mm 0,0 UV-I 0 W/m -0,1 C 0,6 C 0,0 km/h (0 Bft) 100,00 %
09.11.2016 18:34 0,6 C 95 % 1005,9 hPa 0,0 l/m 0,0 km/h (0 Bft) NO 44 0 min 0,000 mm 0,0 UV-I 0 W/m -0,1 C 0,6 C 0,0 km/h (0 Bft) 97,87 %
09.11.2016 18:36 0,6 C 95 % 1005,9 hPa 0,0 l/m 0,0 km/h (0 Bft) NO 44 0 min 0,000 mm 0,0 UV-I 0 W/m -0,1 C 0,6 C 0,0 km/h (0 Bft) 97,87 %
09.11.2016 18:38 0,6 C 95 % 1005,9 hPa 0,0 l/m 0,0 km/h (0 Bft) NO 44 0 min 0,000 mm 0,0 UV-I 0 W/m -0,1 C 0,6 C 0,0 km/h (0 Bft) 100,00 %
09.11.2016 18:40 0,7 C 95 % 1005,9 hPa 0,0 l/m 0,0 km/h (0 Bft) NO 44 0 min 0,000 mm 0,0 UV-I 0 W/m -0,0 C 0,7 C 0,0 km/h (0 Bft) 97,96 %
09.11.2016 18:42 0,7 C 95 % 1005,9 hPa 0,0 l/m 0,0 km/h (0 Bft) NO 44 0 min 0,000 mm 0,0 UV-I 0 W/m -0,0 C 0,7 C 0,0 km/h (0 Bft) 100,00 %
09.11.2016 18:44 0,7 C 95 % 1005,9 hPa 0,0 l/m 0,0 km/h (0 Bft) NO 44 0 min 0,000 mm 0,0 UV-I 0 W/m -0,0 C 0,7 C 0,0 km/h (0 Bft) 97,87 %
09.11.2016 18:46 0,8 C 95 % 1005,9 hPa 0,0 l/m 0,0 km/h (0 Bft) NO 44 0 min 0,000 mm 0,0 UV-I 0 W/m 0,1 C 0,8 C 0,0 km/h (0 Bft) 97,87 %
09.11.2016 18:48 0,7 C 95 % 1005,9 hPa 0,0 l/m 0,0 km/h (0 Bft) NO 44 0 min 0,000 mm 0,0 UV-I 0 W/m -0,0 C 0,7 C 0,0 km/h (0 Bft) 100,00 %
09.11.2016 18:50 0,7 C 95 % 1005,9 hPa 0,0 l/m 0,0 km/h (0 Bft) NO 44 0 min 0,000 mm 0,0 UV-I 0 W/m -0,0 C 0,7 C 0,0 km/h (0 Bft) 100,00 %
09.11.2016 18:52 0,6 C 95 % 1005,8 hPa 0,0 l/m 0,0 km/h (0 Bft) NO 44 0 min 0,000 mm 0,0 UV-I 0 W/m -0,1 C 0,6 C 0,0 km/h (0 Bft) 97,87 %
09.11.2016 18:54 0,6 C 95 % 1005,8 hPa 0,0 l/m 0,0 km/h (0 Bft) NO 44 0 min 0,000 mm 0,0 UV-I 0 W/m -0,1 C 0,6 C 0,0 km/h (0 Bft) 100,00 %
09.11.2016 18:56 0,7 C 95 % 1005,8 hPa 0,0 l/m 0,0 km/h (0 Bft) NO 44 0 min 0,000 mm 0,0 UV-I 0 W/m -0,0 C 0,7 C 0,0 km/h (0 Bft) 100,00 %
09.11.2016 18:58 0,7 C 95 % 1005,8 hPa 0,0 l/m 0,0 km/h (0 Bft) NO 44 0 min 0,000 mm 0,0 UV-I 0 W/m -0,0 C 0,7 C 0,0 km/h (0 Bft) 100,00 %
09.11.2016 19:00 0,7 C 95 % 1005,8 hPa 0,0 l/m 0,2 km/h (0 Bft) NO 44 0 min 0,000 mm 0,0 UV-I 0 W/m -0,0 C 0,7 C 1,6 km/h (1 Bft) 97,87 %
09.11.2016 19:02 0,8 C 95 % 1005,8 hPa 0,0 l/m 1,7 km/h (1 Bft) NO 44 0 min 0,000 mm 0,0 UV-I 0 W/m 0,1 C 0,8 C 3,2 km/h (1 Bft) 100,00 %
09.11.2016 19:04 0,8 C 95 % 1005,8 hPa 0,0 l/m 1,8 km/h (1 Bft) NO 44 0 min 0,000 mm 0,0 UV-I 0 W/m 0,1 C 0,8 C 3,2 km/h (1 Bft) 97,87 %
09.11.2016 19:06 0,8 C 95 % 1005,8 hPa 0,0 l/m 1,3 km/h (1 Bft) NO 44 0 min 0,000 mm 0,0 UV-I 0 W/m 0,1 C 0,8 C 3,2 km/h (1 Bft) 100,00 %
09.11.2016 19:08 0,8 C 95 % 1005,8 hPa 0,0 l/m 0,4 km/h (0 Bft) NO 44 0 min 0,000 mm 0,0 UV-I 0 W/m 0,1 C 0,8 C 1,6 km/h (1 Bft) 100,00 %
09.11.2016 19:10 0,9 C 95 % 1005,8 hPa 0,0 l/m 1,0 km/h (0 Bft) NO 44 0 min 0,000 mm 0,0 UV-I 0 W/m 0,2 C 0,9 C 1,6 km/h (1 Bft) 100,00 %
09.11.2016 19:12 0,9 C 95 % 1005,8 hPa 0,0 l/m 1,5 km/h (1 Bft) NO 44 0 min 0,000 mm 0,0 UV-I 0 W/m 0,2 C 0,9 C 3,2 km/h (1 Bft) 97,87 %
09.11.2016 19:14 0,9 C 95 % 1005,8 hPa 0,0 l/m 1,4 km/h (1 Bft) NO 44 0 min 0,000 mm 0,0 UV-I 0 W/m 0,2 C 0,9 C 3,2 km/h (1 Bft) 95,74 %
09.11.2016 19:16 0,9 C 95 % 1005,8 hPa 0,0 l/m 1,5 km/h (1 Bft) NO 44 0 min 0,000 mm 0,0 UV-I 0 W/m 0,2 C 0,9 C 3,2 km/h (1 Bft) 98,00 %
09.11.2016 19:18 0,9 C 95 % 1005,8 hPa 0,0 l/m 1,3 km/h (1 Bft) NO 44 0 min 0,000 mm 0,0 UV-I 0 W/m 0,2 C 0,9 C 1,6 km/h (1 Bft) 97,87 %
09.11.2016 19:20 0,8 C 95 % 1005,8 hPa 0,0 l/m 1,4 km/h (1 Bft) NO 44 0 min 0,000 mm 0,0 UV-I 0 W/m 0,1 C 0,8 C 1,6 km/h (1 Bft) 95,74 %
09.11.2016 19:22 0,8 C 95 % 1005,8 hPa 0,0 l/m 1,4 km/h (1 Bft) NO 44 0 min 0,000 mm 0,0 UV-I 0 W/m 0,1 C 0,8 C 3,2 km/h (1 Bft) 95,74 %
09.11.2016 19:24 0,8 C 95 % 1005,9 hPa 0,0 l/m 1,3 km/h (1 Bft) NO 44 0 min 0,000 mm 0,0 UV-I 0 W/m 0,1 C 0,8 C 1,6 km/h (1 Bft) 95,74 %
09.11.2016 19:26 0,7 C 95 % 1005,9 hPa 0,0 l/m 1,6 km/h (1 Bft) NO 44 0 min 0,000 mm 0,0 UV-I 0 W/m -0,0 C 0,7 C 1,6 km/h (1 Bft) 93,88 %
09.11.2016 19:28 0,7 C 95 % 1005,9 hPa 0,0 l/m 1,8 km/h (1 Bft) NO 44 0 min 0,000 mm 0,0 UV-I 0 W/m -0,0 C 0,7 C 3,2 km/h (1 Bft) 97,87 %
09.11.2016 19:30 0,6 C 95 % 1005,9 hPa 0,0 l/m 1,8 km/h (1 Bft) NO 44 0 min 0,000 mm 0,0 UV-I 0 W/m -0,1 C 0,6 C 3,2 km/h (1 Bft) 98,00 %
09.11.2016 19:32 0,6 C 95 % 1005,8 hPa 0,0 l/m 1,5 km/h (1 Bft) NO 44 0 min 0,000 mm 0,0 UV-I 0 W/m -0,1 C 0,6 C 3,2 km/h (1 Bft) 97,14 %
09.11.2016 19:34 0,6 C 95 % 1005,8 hPa 0,0 l/m 0,6 km/h (0 Bft) NO 44 0 min 0,000 mm 0,0 UV-I 0 W/m -0,1 C 0,6 C 1,6 km/h (1 Bft) 98,00 %
09.11.2016 19:36 0,7 C 96 % 1005,9 hPa 0,0 l/m 0,0 km/h (0 Bft) NO 44 0 min 0,000 mm 0,0 UV-I 0 W/m 0,1 C 0,7 C 0,0 km/h (0 Bft) 96,00 %
09.11.2016 19:38 0,7 C 96 % 1005,8 hPa 0,0 l/m 0,0 km/h (0 Bft) NO 44 0 min 0,000 mm 0,0 UV-I 0 W/m 0,1 C 0,7 C 0,0 km/h (0 Bft) 96,00 %
09.11.2016 19:40 0,7 C 96 % 1005,9 hPa 0,0 l/m 0,0 km/h (0 Bft) NO 44 0 min 0,000 mm 0,0 UV-I 0 W/m 0,1 C 0,7 C 0,0 km/h (0 Bft) 97,87 %
09.11.2016 19:42 0,7 C 96 % 1005,8 hPa 0,0 l/m 0,0 km/h (0 Bft) NO 44 0 min 0,000 mm 0,0 UV-I 0 W/m 0,1 C 0,7 C 0,0 km/h (0 Bft) 97,87 %
09.11.2016 19:44 0,7 C 96 % 1005,8 hPa 0,0 l/m 0,3 km/h (0 Bft) NO 44 0 min 0,000 mm 0,0 UV-I 0 W/m 0,1 C 0,7 C 1,6 km/h (1 Bft) 94,74 %
09.11.2016 19:46 0,6 C 95 % 1005,9 hPa 0,0 l/m 0,5 km/h (0 Bft) NO 44 0 min 0,000 mm 0,0 UV-I 0 W/m -0,1 C 0,6 C 1,6 km/h (1 Bft) 93,75 %
09.11.2016 19:48 0,6 C 96 % 1005,9 hPa 0,0 l/m 0,6 km/h (0 Bft) NO 44 0 min 0,000 mm 0,0 UV-I 0 W/m 0,0 C 0,6 C 1,6 km/h (1 Bft) 97,87 %
09.11.2016 19:50 0,6 C 96 % 1005,9 hPa 0,0 l/m 0,0 km/h (0 Bft) NO 44 0 min 0,000 mm 0,0 UV-I 0 W/m 0,0 C 0,6 C 0,0 km/h (0 Bft) 91,49 %
09.11.2016 19:52 0,6 C 96 % 1005,8 hPa 0,0 l/m 0,0 km/h (0 Bft) NO 44 0 min 0,000 mm 0,0 UV-I 0 W/m 0,0 C 0,6 C 0,0 km/h (0 Bft) 97,87 %
09.11.2016 19:54 0,6 C 96 % 1005,9 hPa 0,0 l/m 0,0 km/h (0 Bft) NO 44 0 min 0,000 mm 0,0 UV-I 0 W/m 0,0 C 0,6 C 0,0 km/h (0 Bft) 100,00 %
09.11.2016 19:56 0,6 C 96 % 1005,8 hPa 0,0 l/m 0,0 km/h (0 Bft) NO 44 0 min 0,000 mm 0,0 UV-I 0 W/m 0,0 C 0,6 C 0,0 km/h (0 Bft) 100,00 %
09.11.2016 19:59 0,6 C 96 % 1005,9 hPa 0,0 l/m 0,2 km/h (0 Bft) NO 44 0 min 0,000 mm 0,0 UV-I 0 W/m 0,0 C 0,6 C 1,6 km/h (1 Bft) 97,14 %
09.11.2016 20:00 0,6 C 96 % 1005,9 hPa 0,0 l/m 1,7 km/h (1 Bft) NO 44 0 min 0,000 mm 0,0 UV-I 0 W/m 0,0 C 0,6 C 3,2 km/h (1 Bft) 100,00 %
09.11.2016 20:04 0,6 C 96 % 1006,0 hPa 0,0 l/m 2,0 km/h (1 Bft) NO 44 0 min 0,000 mm 0,0 UV-I 0 W/m 0,0 C 0,6 C 3,2 km/h (1 Bft) 98,00 %
09.11.2016 20:06 0,6 C 96 % 1005,9 hPa 0,0 l/m 1,4 km/h (1 Bft) NO 44 0 min 0,000 mm 0,0 UV-I 0 W/m 0,0 C 0,6 C 3,2 km/h (1 Bft) 97,14 %
09.11.2016 20:09 0,6 C 96 % 1006,0 hPa 0,0 l/m 2,6 km/h (1 Bft) NO 44 0 min 0,000 mm 0,0 UV-I 0 W/m 0,0 C 0,6 C 3,2 km/h (1 Bft) 98,78 %
09.11.2016 20:10 0,6 C 96 % 1006,0 hPa 0,0 l/m 3,1 km/h (1 Bft) NO 44 0 min 0,000 mm 0,0 UV-I 0 W/m 0,0 C 0,6 C 3,2 km/h (1 Bft) 100,00 %
09.11.2016 20:12 0,6 C 96 % 1006,0 hPa 0,0 l/m 3,3 km/h (1 Bft) NO 44 0 min 0,000 mm 0,0 UV-I 0 W/m 0,0 C 0,6 C 4,8 km/h (1 Bft) 100,00 %
09.11.2016 20:14 0,6 C 96 % 1006,1 hPa 0,0 l/m 3,1 km/h (1 Bft) NO 44 0 min 0,000 mm 0,0 UV-I 0 W/m 0,0 C 0,6 C 4,8 km/h (1 Bft) 97,87 %
09.11.2016 20:16 0,6 C 96 % 1006,0 hPa 0,0 l/m 2,4 km/h (1 Bft) NO 44 0 min 0,000 mm 0,0 UV-I 0 W/m 0,0 C 0,6 C 3,2 km/h (1 Bft) 97,87 %
09.11.2016 20:18 0,6 C 96 % 1006,1 hPa 0,0 l/m 1,3 km/h (1 Bft) NO 44 0 min 0,000 mm 0,0 UV-I 0 W/m 0,0 C 0,6 C 3,2 km/h (1 Bft) 100,00 %
09.11.2016 20:20 0,6 C 96 % 1006,1 hPa 0,0 l/m 0,0 km/h (0 Bft) NO 44 0 min 0,000 mm 0,0 UV-I 0 W/m 0,0 C 0,6 C 0,0 km/h (0 Bft) 100,00 %
09.11.2016 20:22 0,7 C 96 % 1006,1 hPa 0,0 l/m 0,5 km/h (0 Bft) NO 44 0 min 0,000 mm 0,0 UV-I 0 W/m 0,1 C 0,7 C 3,2 km/h (1 Bft) 97,96 %
09.11.2016 20:24 0,7 C 96 % 1006,1 hPa 0,0 l/m 0,9 km/h (0 Bft) NO 44 0 min 0,000 mm 0,0 UV-I 0 W/m 0,1 C 0,7 C 1,6 km/h (1 Bft) 100,00 %
09.11.2016 20:26 0,6 C 96 % 1006,1 hPa 0,0 l/m 0,0 km/h (0 Bft) NO 44 0 min 0,000 mm 0,0 UV-I 0 W/m 0,0 C 0,6 C 0,0 km/h (0 Bft) 100,00 %
09.11.2016 20:28 0,6 C 96 % 1006,1 hPa 0,0 l/m 0,0 km/h (0 Bft) NO 44 0 min 0,000 mm 0,0 UV-I 0 W/m 0,0 C 0,6 C 0,0 km/h (0 Bft) 97,87 %
09.11.2016 20:30 0,5 C 96 % 1006,1 hPa 0,0 l/m 0,0 km/h (0 Bft) NO 44 0 min 0,000 mm 0,0 UV-I 0 W/m -0,1 C 0,5 C 0,0 km/h (0 Bft) 100,00 %
09.11.2016 20:32 0,6 C 96 % 1006,1 hPa 0,0 l/m 0,0 km/h (0 Bft) NO 44 0 min 0,000 mm 0,0 UV-I 0 W/m 0,0 C 0,6 C 0,0 km/h (0 Bft) 97,92 %
09.11.2016 20:34 0,6 C 96 % 1006,2 hPa 0,0 l/m 0,0 km/h (0 Bft) NO 44 0 min 0,000 mm 0,0 UV-I 0 W/m 0,0 C 0,6 C 0,0 km/h (0 Bft) 98,00 %
09.11.2016 20:36 0,6 C 96 % 1006,1 hPa 0,0 l/m 0,0 km/h (0 Bft) NO 44 0 min 0,000 mm 0,0 UV-I 0 W/m 0,0 C 0,6 C 1,6 km/h (1 Bft) 100,00 %
09.11.2016 20:38 0,6 C 96 % 1006,2 hPa 0,0 l/m 0,0 km/h (0 Bft) NO 44 0 min 0,000 mm 0,0 UV-I 0 W/m 0,0 C 0,6 C 0,0 km/h (0 Bft) 100,00 %
09.11.2016 20:40 0,7 C 96 % 1006,1 hPa 0,0 l/m 0,0 km/h (0 Bft) NO 44 0 min 0,000 mm 0,0 UV-I 0 W/m 0,1 C 0,7 C 0,0 km/h (0 Bft) 100,00 %
09.11.2016 20:42 0,7 C 96 % 1006,1 hPa 0,0 l/m 0,0 km/h (0 Bft) NO 44 0 min 0,000 mm 0,0 UV-I 0 W/m 0,1 C 0,7 C 0,0 km/h (0 Bft) 100,00 %
09.11.2016 20:44 0,7 C 96 % 1006,2 hPa 0,0 l/m 0,0 km/h (0 Bft) NO 44 0 min 0,000 mm 0,0 UV-I 0 W/m 0,1 C 0,7 C 0,0 km/h (0 Bft) 100,00 %
09.11.2016 20:46 0,8 C 96 % 1006,1 hPa 0,0 l/m 0,0 km/h (0 Bft) NO 44 0 min 0,000 mm 0,0 UV-I 0 W/m 0,2 C 0,8 C 0,0 km/h (0 Bft) 97,87 %
09.11.2016 20:48 0,8 C 96 % 1006,1 hPa 0,0 l/m 0,0 km/h (0 Bft) NO 44 0 min 0,000 mm 0,0 UV-I 0 W/m 0,2 C 0,8 C 0,0 km/h (0 Bft) 100,00 %
09.11.2016 20:50 0,8 C 96 % 1006,1 hPa 0,0 l/m 0,2 km/h (0 Bft) NO 44 0 min 0,000 mm 0,0 UV-I 0 W/m 0,2 C 0,8 C 1,6 km/h (1 Bft) 97,87 %
09.11.2016 20:52 0,8 C 96 % 1006,1 hPa 0,0 l/m 0,0 km/h (0 Bft) NO 44 0 min 0,000 mm 0,0 UV-I 0 W/m 0,2 C 0,8 C 0,0 km/h (0 Bft) 100,00 %
09.11.2016 20:54 0,8 C 96 % 1006,2 hPa 0,0 l/m 0,0 km/h (0 Bft) NO 44 0 min 0,000 mm 0,0 UV-I 0 W/m 0,2 C 0,8 C 0,0 km/h (0 Bft) 100,00 %
09.11.2016 20:56 0,8 C 96 % 1006,1 hPa 0,0 l/m 0,0 km/h (0 Bft) NO 44 0 min 0,000 mm 0,0 UV-I 0 W/m 0,2 C 0,8 C 0,0 km/h (0 Bft) 100,00 %
09.11.2016 20:58 0,8 C 96 % 1006,2 hPa 0,0 l/m 0,0 km/h (0 Bft) NO 44 0 min 0,000 mm 0,0 UV-I 0 W/m 0,2 C 0,8 C 0,0 km/h (0 Bft) 100,00 %
09.11.2016 21:00 0,9 C 96 % 1006,2 hPa 0,0 l/m 0,0 km/h (0 Bft) NO 44 0 min 0,000 mm 0,0 UV-I 0 W/m 0,3 C 0,9 C 0,0 km/h (0 Bft) 100,00 %
09.11.2016 21:02 0,8 C 96 % 1006,2 hPa 0,0 l/m 0,3 km/h (0 Bft) NO 44 0 min 0,000 mm 0,0 UV-I 0 W/m 0,2 C 0,8 C 1,6 km/h (1 Bft) 100,00 %
09.11.2016 21:04 0,8 C 95 % 1006,3 hPa 0,0 l/m 2,8 km/h (1 Bft) NO 44 0 min 0,000 mm 0,0 UV-I 0 W/m 0,1 C 0,8 C 3,2 km/h (1 Bft) 100,00 %
09.11.2016 21:06 0,8 C 96 % 1006,4 hPa 0,0 l/m 2,7 km/h (1 Bft) NO 44 0 min 0,000 mm 0,0 UV-I 0 W/m 0,2 C 0,8 C 4,8 km/h (1 Bft) 97,92 %
09.11.2016 21:08 0,8 C 96 % 1006,5 hPa 0,0 l/m 3,2 km/h (1 Bft) NO 44 0 min 0,000 mm 0,0 UV-I 0 W/m 0,2 C 0,8 C 4,8 km/h (1 Bft) 97,87 %
09.11.2016 21:10 0,8 C 96 % 1006,5 hPa 0,0 l/m 2,9 km/h (1 Bft) NO 44 0 min 0,000 mm 0,0 UV-I 0 W/m 0,2 C 0,8 C 4,8 km/h (1 Bft) 100,00 %
09.11.2016 21:12 0,8 C 95 % 1006,5 hPa 0,0 l/m 3,7 km/h (1 Bft) NO 42 0 min 0,000 mm 0,0 UV-I 0 W/m 0,1 C 0,8 C 4,8 km/h (1 Bft) 100,00 %
09.11.2016 21:14 0,8 C 96 % 1006,4 hPa 0,0 l/m 2,3 km/h (1 Bft) NO 42 0 min 0,000 mm 0,0 UV-I 0 W/m 0,2 C 0,8 C 3,2 km/h (1 Bft) 100,00 %
09.11.2016 21:16 0,8 C 96 % 1006,4 hPa 0,0 l/m 0,6 km/h (0 Bft) NO 42 0 min 0,000 mm 0,0 UV-I 0 W/m 0,2 C 0,8 C 3,2 km/h (1 Bft) 100,00 %
09.11.2016 21:19 0,8 C 96 % 1006,4 hPa 0,0 l/m 0,9 km/h (0 Bft) NO 42 0 min 0,000 mm 0,0 UV-I 0 W/m 0,2 C 0,8 C 3,2 km/h (1 Bft) 95,71 %
09.11.2016 21:20 0,8 C 96 % 1006,4 hPa 0,0 l/m 2,4 km/h (1 Bft) NO 42 0 min 0,000 mm 0,0 UV-I 0 W/m 0,2 C 0,8 C 3,2 km/h (1 Bft) 100,00 %
09.11.2016 21:22 0,8 C 96 % 1006,3 hPa 0,0 l/m 2,0 km/h (1 Bft) NO 42 0 min 0,000 mm 0,0 UV-I 0 W/m 0,2 C 0,8 C 3,2 km/h (1 Bft) 100,00 %
09.11.2016 21:24 0,8 C 96 % 1006,3 hPa 0,0 l/m 1,5 km/h (1 Bft) NO 42 0 min 0,000 mm 0,0 UV-I 0 W/m 0,2 C 0,8 C 1,6 km/h (1 Bft) 97,87 %
09.11.2016 21:26 0,8 C 96 % 1006,3 hPa 0,0 l/m 0,3 km/h (0 Bft) NO 42 0 min 0,000 mm 0,0 UV-I 0 W/m 0,2 C 0,8 C 1,6 km/h (1 Bft) 95,74 %
09.11.2016 21:29 0,8 C 96 % 1006,3 hPa 0,0 l/m 1,1 km/h (1 Bft) NO 42 0 min 0,000 mm 0,0 UV-I 0 W/m 0,2 C 0,8 C 3,2 km/h (1 Bft) 97,14 %
09.11.2016 21:30 0,8 C 96 % 1006,3 hPa 0,0 l/m 1,8 km/h (1 Bft) NO 42 0 min 0,000 mm 0,0 UV-I 0 W/m 0,2 C 0,8 C 3,2 km/h (1 Bft) 100,00 %
09.11.2016 21:32 0,8 C 96 % 1006,3 hPa 0,0 l/m 0,4 km/h (0 Bft) NO 42 0 min 0,000 mm 0,0 UV-I 0 W/m 0,2 C 0,8 C 1,6 km/h (1 Bft) 97,87 %
09.11.2016 21:34 0,9 C 96 % 1006,3 hPa 0,0 l/m 2,3 km/h (1 Bft) NO 42 0 min 0,000 mm 0,0 UV-I 0 W/m 0,3 C 0,9 C 3,2 km/h (1 Bft) 98,00 %
09.11.2016 21:36 0,9 C 96 % 1006,3 hPa 0,0 l/m 4,7 km/h (1 Bft) O-NO 70 0 min 0,000 mm 0,0 UV-I 0 W/m 0,3 C 0,9 C 6,4 km/h (2 Bft) 93,62 %
09.11.2016 21:40 0,9 C 96 % 1006,3 hPa 0,0 l/m 4,8 km/h (1 Bft) O-NO 67 0 min 0,000 mm 0,0 UV-I 0 W/m 0,3 C 0,9 C 6,4 km/h (2 Bft) 75,44 %
09.11.2016 21:42 1,0 C 96 % 1006,4 hPa 0,0 l/m 1,2 km/h (1 Bft) O-NO 70 0 min 0,000 mm 0,0 UV-I 0 W/m 0,4 C 1,0 C 3,2 km/h (1 Bft) 97,50 %
09.11.2016 21:44 1,1 C 95 % 1006,4 hPa 0,0 l/m 0,0 km/h (0 Bft) O-NO 70 0 min 0,000 mm 0,0 UV-I 0 W/m 0,4 C 1,1 C 0,0 km/h (0 Bft) 93,62 %
09.11.2016 21:46 1,1 C 95 % 1006,5 hPa 0,0 l/m 0,0 km/h (0 Bft) O-NO 70 0 min 0,000 mm 0,0 UV-I 0 W/m 0,4 C 1,1 C 0,0 km/h (0 Bft) 97,92 %
09.11.2016 21:48 1,1 C 95 % 1006,5 hPa 0,0 l/m 1,0 km/h (0 Bft) O-NO 70 0 min 0,000 mm 0,0 UV-I 0 W/m 0,4 C 1,1 C 1,6 km/h (1 Bft) 97,37 %
09.11.2016 21:50 1,1 C 95 % 1006,4 hPa 0,0 l/m 0,1 km/h (0 Bft) O-NO 70 0 min 0,000 mm 0,0 UV-I 0 W/m 0,4 C 1,1 C 1,6 km/h (1 Bft) 98,00 %
09.11.2016 21:52 1,1 C 95 % 1006,4 hPa 0,0 l/m 0,0 km/h (0 Bft) O-NO 70 0 min 0,000 mm 0,0 UV-I 0 W/m 0,4 C 1,1 C 0,0 km/h (0 Bft) 100,00 %
09.11.2016 21:54 1,1 C 95 % 1006,4 hPa 0,0 l/m 0,0 km/h (0 Bft) O-NO 70 0 min 0,000 mm 0,0 UV-I 0 W/m 0,4 C 1,1 C 0,0 km/h (0 Bft) 97,87 %
09.11.2016 21:57 1,1 C 95 % 1006,5 hPa 0,0 l/m 0,0 km/h (0 Bft) O-NO 70 0 min 0,000 mm 0,0 UV-I 0 W/m 0,4 C 1,1 C 0,0 km/h (0 Bft) 97,26 %
09.11.2016 21:58 1,1 C 95 % 1006,5 hPa 0,0 l/m 0,0 km/h (0 Bft) O-NO 70 0 min 0,000 mm 0,0 UV-I 0 W/m 0,4 C 1,1 C 0,0 km/h (0 Bft) 95,83 %
09.11.2016 22:00 1,1 C 95 % 1006,6 hPa 0,0 l/m 0,0 km/h (0 Bft) O-NO 70 0 min 0,000 mm 0,0 UV-I 0 W/m 0,4 C 1,1 C 0,0 km/h (0 Bft) 100,00 %
09.11.2016 22:02 1,1 C 95 % 1006,4 hPa 0,0 l/m 0,2 km/h (0 Bft) O-NO 70 0 min 0,000 mm 0,0 UV-I 0 W/m 0,4 C 1,1 C 1,6 km/h (1 Bft) 98,00 %
09.11.2016 22:04 1,1 C 95 % 1006,4 hPa 0,0 l/m 2,2 km/h (1 Bft) O-NO 70 0 min 0,000 mm 0,0 UV-I 0 W/m 0,4 C 1,1 C 3,2 km/h (1 Bft) 100,00 %
09.11.2016 22:06 1,1 C 95 % 1006,5 hPa 0,0 l/m 0,5 km/h (0 Bft) O-NO 70 0 min 0,000 mm 0,0 UV-I 0 W/m 0,4 C 1,1 C 3,2 km/h (1 Bft) 100,00 %
09.11.2016 22:08 1,0 C 95 % 1006,5 hPa 0,0 l/m 1,0 km/h (0 Bft) O-NO 70 0 min 0,000 mm 0,0 UV-I 0 W/m 0,3 C 1,0 C 3,2 km/h (1 Bft) 97,37 %
09.11.2016 22:10 1,0 C 95 % 1006,5 hPa 0,0 l/m 1,5 km/h (1 Bft) O-NO 70 0 min 0,000 mm 0,0 UV-I 0 W/m 0,3 C 1,0 C 3,2 km/h (1 Bft) 100,00 %
09.11.2016 22:12 0,9 C 95 % 1006,5 hPa 0,0 l/m 4,0 km/h (1 Bft) S-SW 209 0 min 0,000 mm 0,0 UV-I 0 W/m 0,2 C 0,9 C 6,4 km/h (2 Bft) 100,00 %
09.11.2016 22:14 0,9 C 96 % 1006,5 hPa 0,0 l/m 3,0 km/h (1 Bft) S-SW 209 0 min 0,000 mm 0,0 UV-I 0 W/m 0,3 C 0,9 C 6,4 km/h (2 Bft) 96,00 %
09.11.2016 22:16 0,9 C 96 % 1006,5 hPa 0,0 l/m 1,9 km/h (1 Bft) S-SW 209 0 min 0,000 mm 0,0 UV-I 0 W/m 0,3 C 0,9 C 3,2 km/h (1 Bft) 100,00 %
09.11.2016 22:19 0,9 C 96 % 1006,6 hPa 0,0 l/m 1,0 km/h (0 Bft) S-SW 208 0 min 0,000 mm 0,0 UV-I 0 W/m 0,3 C 0,9 C 3,2 km/h (1 Bft) 100,00 %
09.11.2016 22:20 0,9 C 96 % 1006,6 hPa 0,0 l/m 2,9 km/h (1 Bft) S-SW 207 0 min 0,000 mm 0,0 UV-I 0 W/m 0,3 C 0,9 C 4,8 km/h (1 Bft) 100,00 %
09.11.2016 22:22 0,9 C 96 % 1006,6 hPa 0,0 l/m 1,6 km/h (1 Bft) S-SW 207 0 min 0,000 mm 0,0 UV-I 0 W/m 0,3 C 0,9 C 4,8 km/h (1 Bft) 100,00 %
09.11.2016 22:24 0,9 C 96 % 1006,5 hPa 0,0 l/m 1,2 km/h (1 Bft) S-SW 207 0 min 0,000 mm 0,0 UV-I 0 W/m 0,3 C 0,9 C 1,6 km/h (1 Bft) 100,00 %
09.11.2016 22:26 0,9 C 96 % 1006,4 hPa 0,0 l/m 1,9 km/h (1 Bft) S-SW 207 0 min 0,000 mm 0,0 UV-I 0 W/m 0,3 C 0,9 C 3,2 km/h (1 Bft) 100,00 %
09.11.2016 22:28 0,9 C 96 % 1006,4 hPa 0,0 l/m 2,0 km/h (1 Bft) S-SW 207 0 min 0,000 mm 0,0 UV-I 0 W/m 0,3 C 0,9 C 3,2 km/h (1 Bft) 97,92 %
09.11.2016 22:30 0,9 C 96 % 1006,4 hPa 0,0 l/m 2,0 km/h (1 Bft) S-SW 207 0 min 0,000 mm 0,0 UV-I 0 W/m 0,3 C 0,9 C 3,2 km/h (1 Bft) 100,00 %
09.11.2016 22:32 0,9 C 96 % 1006,5 hPa 0,0 l/m 0,9 km/h (0 Bft) S-SW 207 0 min 0,000 mm 0,0 UV-I 0 W/m 0,3 C 0,9 C 3,2 km/h (1 Bft) 98,31 %
09.11.2016 22:34 0,9 C 96 % 1006,5 hPa 0,0 l/m 2,8 km/h (1 Bft) S-SW 207 0 min 0,000 mm 0,0 UV-I 0 W/m 0,3 C 0,9 C 3,2 km/h (1 Bft) 97,14 %
09.11.2016 22:36 0,9 C 96 % 1006,5 hPa 0,0 l/m 0,2 km/h (0 Bft) S-SW 207 0 min 0,000 mm 0,0 UV-I 0 W/m 0,3 C 0,9 C 1,6 km/h (1 Bft) 98,00 %
09.11.2016 22:38 0,9 C 96 % 1006,5 hPa 0,0 l/m 0,6 km/h (0 Bft) S-SW 207 0 min 0,000 mm 0,0 UV-I 0 W/m 0,3 C 0,9 C 3,2 km/h (1 Bft) 100,00 %
09.11.2016 22:40 0,9 C 96 % 1006,5 hPa 0,0 l/m 1,6 km/h (1 Bft) S-SW 207 0 min 0,000 mm 0,0 UV-I 0 W/m 0,3 C 0,9 C 3,2 km/h (1 Bft) 100,00 %
09.11.2016 22:42 0,9 C 96 % 1006,5 hPa 0,0 l/m 0,0 km/h (0 Bft) S-SW 207 0 min 0,000 mm 0,0 UV-I 0 W/m 0,3 C 0,9 C 0,0 km/h (0 Bft) 97,87 %
09.11.2016 22:44 0,9 C 96 % 1006,5 hPa 0,0 l/m 0,0 km/h (0 Bft) S-SW 207 0 min 0,000 mm 0,0 UV-I 0 W/m 0,3 C 0,9 C 0,0 km/h (0 Bft) 100,00 %
09.11.2016 22:46 0,9 C 96 % 1006,4 hPa 0,0 l/m 0,0 km/h (0 Bft) S-SW 207 0 min 0,000 mm 0,0 UV-I 0 W/m 0,3 C 0,9 C 0,0 km/h (0 Bft) 100,00 %
09.11.2016 22:48 0,9 C 96 % 1006,4 hPa 0,0 l/m 0,9 km/h (0 Bft) S-SW 207 0 min 0,000 mm 0,0 UV-I 0 W/m 0,3 C 0,9 C 1,6 km/h (1 Bft) 93,62 %
09.11.2016 22:50 0,9 C 96 % 1006,3 hPa 0,0 l/m 2,2 km/h (1 Bft) S-SW 207 0 min 0,000 mm 0,0 UV-I 0 W/m 0,3 C 0,9 C 3,2 km/h (1 Bft) 98,00 %
09.11.2016 22:52 0,8 C 96 % 1006,4 hPa 0,0 l/m 0,8 km/h (0 Bft) S-SW 207 0 min 0,000 mm 0,0 UV-I 0 W/m 0,2 C 0,8 C 1,6 km/h (1 Bft) 100,00 %
09.11.2016 22:54 0,8 C 96 % 1006,4 hPa 0,0 l/m 0,0 km/h (0 Bft) S-SW 207 0 min 0,000 mm 0,0 UV-I 0 W/m 0,2 C 0,8 C 0,0 km/h (0 Bft) 100,00 %
09.11.2016 22:56 0,9 C 96 % 1006,3 hPa 0,0 l/m 1,3 km/h (1 Bft) S-SW 207 0 min 0,000 mm 0,0 UV-I 0 W/m 0,3 C 0,9 C 3,2 km/h (1 Bft) 98,11 %
09.11.2016 22:58 0,9 C 96 % 1006,3 hPa 0,0 l/m 2,7 km/h (1 Bft) S-SW 205 0 min 0,000 mm 0,0 UV-I 0 W/m 0,3 C 0,9 C 3,2 km/h (1 Bft) 97,22 %
09.11.2016 23:00 0,9 C 96 % 1006,3 hPa 0,0 l/m 4,4 km/h (1 Bft) O 82 0 min 0,000 mm 0,0 UV-I 0 W/m 0,3 C 0,9 C 6,4 km/h (2 Bft) 100,00 %
09.11.2016 23:02 1,0 C 95 % 1006,3 hPa 0,0 l/m 3,8 km/h (1 Bft) O-NO 77 0 min 0,000 mm 0,0 UV-I 0 W/m 0,3 C 1,0 C 6,4 km/h (2 Bft) 100,00 %
09.11.2016 23:04 1,1 C 95 % 1006,4 hPa 0,0 l/m 2,7 km/h (1 Bft) O-NO 77 0 min 0,000 mm 0,0 UV-I 0 W/m 0,4 C 1,1 C 4,8 km/h (1 Bft) 100,00 %
09.11.2016 23:06 1,1 C 95 % 1006,4 hPa 0,0 l/m 1,9 km/h (1 Bft) O-NO 77 0 min 0,000 mm 0,0 UV-I 0 W/m 0,4 C 1,1 C 3,2 km/h (1 Bft) 100,00 %
09.11.2016 23:08 1,0 C 95 % 1006,4 hPa 0,0 l/m 3,2 km/h (1 Bft) O-NO 76 0 min 0,000 mm 0,0 UV-I 0 W/m 0,3 C 1,0 C 4,8 km/h (1 Bft) 100,00 %
09.11.2016 23:10 1,0 C 95 % 1006,4 hPa 0,0 l/m 3,4 km/h (1 Bft) O-NO 75 0 min 0,000 mm 0,0 UV-I 0 W/m 0,3 C 1,0 C 4,8 km/h (1 Bft) 97,87 %
09.11.2016 23:12 1,0 C 95 % 1006,4 hPa 0,0 l/m 3,5 km/h (1 Bft) O-NO 74 0 min 0,000 mm 0,0 UV-I 0 W/m 0,3 C 1,0 C 4,8 km/h (1 Bft) 100,00 %
09.11.2016 23:14 1,0 C 95 % 1006,4 hPa 0,0 l/m 2,2 km/h (1 Bft) O-NO 74 0 min 0,000 mm 0,0 UV-I 0 W/m 0,3 C 1,0 C 3,2 km/h (1 Bft) 97,87 %
09.11.2016 23:16 1,0 C 95 % 1006,4 hPa 0,0 l/m 2,1 km/h (1 Bft) O-NO 74 0 min 0,000 mm 0,0 UV-I 0 W/m 0,3 C 1,0 C 4,8 km/h (1 Bft) 100,00 %
09.11.2016 23:18 1,0 C 95 % 1006,4 hPa 0,0 l/m 0,4 km/h (0 Bft) O-NO 74 0 min 0,000 mm 0,0 UV-I 0 W/m 0,3 C 1,0 C 1,6 km/h (1 Bft) 97,87 %
09.11.2016 23:20 1,0 C 96 % 1006,5 hPa 0,0 l/m 0,0 km/h (0 Bft) O-NO 74 0 min 0,000 mm 0,0 UV-I 0 W/m 0,4 C 1,0 C 0,0 km/h (0 Bft) 97,14 %
09.11.2016 23:22 1,0 C 96 % 1006,4 hPa 0,0 l/m 0,0 km/h (0 Bft) O-NO 74 0 min 0,000 mm 0,0 UV-I 0 W/m 0,4 C 1,0 C 0,0 km/h (0 Bft) 100,00 %
09.11.2016 23:24 1,0 C 96 % 1006,5 hPa 0,0 l/m 0,0 km/h (0 Bft) O-NO 74 0 min 0,000 mm 0,0 UV-I 0 W/m 0,4 C 1,0 C 0,0 km/h (0 Bft) 100,00 %
09.11.2016 23:26 0,9 C 96 % 1006,5 hPa 0,0 l/m 0,3 km/h (0 Bft) O-NO 74 0 min 0,000 mm 0,0 UV-I 0 W/m 0,3 C 0,9 C 1,6 km/h (1 Bft) 98,00 %
09.11.2016 23:29 0,9 C 95 % 1006,5 hPa 0,0 l/m 0,0 km/h (0 Bft) O-NO 74 0 min 0,000 mm 0,0 UV-I 0 W/m 0,2 C 0,9 C 0,0 km/h (0 Bft) 97,18 %
09.11.2016 23:30 0,9 C 95 % 1006,5 hPa 0,0 l/m 0,0 km/h (0 Bft) O-NO 74 0 min 0,000 mm 0,0 UV-I 0 W/m 0,2 C 0,9 C 0,0 km/h (0 Bft) 100,00 %
09.11.2016 23:32 1,0 C 95 % 1006,6 hPa 0,0 l/m 0,2 km/h (0 Bft) O-NO 74 0 min 0,000 mm 0,0 UV-I 0 W/m 0,3 C 1,0 C 1,6 km/h (1 Bft) 97,37 %
09.11.2016 23:34 1,0 C 95 % 1006,6 hPa 0,0 l/m 0,0 km/h (0 Bft) O-NO 74 0 min 0,000 mm 0,0 UV-I 0 W/m 0,3 C 1,0 C 1,6 km/h (1 Bft) 98,00 %
09.11.2016 23:36 1,0 C 95 % 1006,6 hPa 0,0 l/m 0,0 km/h (0 Bft) O-NO 74 0 min 0,000 mm 0,0 UV-I 0 W/m 0,3 C 1,0 C 0,0 km/h (0 Bft) 98,11 %
09.11.2016 23:39 1,0 C 95 % 1006,6 hPa 0,0 l/m 0,2 km/h (0 Bft) O-NO 74 0 min 0,000 mm 0,0 UV-I 0 W/m 0,3 C 1,0 C 1,6 km/h (1 Bft) 97,30 %
09.11.2016 23:40 1,0 C 95 % 1006,6 hPa 0,0 l/m 0,4 km/h (0 Bft) O-NO 74 0 min 0,000 mm 0,0 UV-I 0 W/m 0,3 C 1,0 C 1,6 km/h (1 Bft) 100,00 %
09.11.2016 23:42 1,0 C 95 % 1006,6 hPa 0,0 l/m 0,6 km/h (0 Bft) O-NO 74 0 min 0,000 mm 0,0 UV-I 0 W/m 0,3 C 1,0 C 1,6 km/h (1 Bft) 97,14 %
09.11.2016 23:44 1,0 C 95 % 1006,4 hPa 0,0 l/m 1,2 km/h (1 Bft) O-NO 74 0 min 0,000 mm 0,0 UV-I 0 W/m 0,3 C 1,0 C 3,2 km/h (1 Bft) 96,00 %
09.11.2016 23:46 0,9 C 95 % 1006,4 hPa 0,0 l/m 1,1 km/h (1 Bft) O-NO 74 0 min 0,000 mm 0,0 UV-I 0 W/m 0,2 C 0,9 C 1,6 km/h (1 Bft) 96,43 %
09.11.2016 23:48 0,9 C 95 % 1006,5 hPa 0,0 l/m 0,0 km/h (0 Bft) O-NO 74 0 min 0,000 mm 0,0 UV-I 0 W/m 0,2 C 0,9 C 0,0 km/h (0 Bft) 98,11 %
09.11.2016 23:50 0,9 C 95 % 1006,5 hPa 0,0 l/m 0,0 km/h (0 Bft) O-NO 74 0 min 0,000 mm 0,0 UV-I 0 W/m 0,2 C 0,9 C 0,0 km/h (0 Bft) 97,56 %
09.11.2016 23:52 0,9 C 95 % 1006,4 hPa 0,0 l/m 0,4 km/h (0 Bft) O-NO 74 0 min 0,000 mm 0,0 UV-I 0 W/m 0,2 C 0,9 C 3,2 km/h (1 Bft) 95,74 %
09.11.2016 23:54 0,9 C 95 % 1006,5 hPa 0,0 l/m 0,6 km/h (0 Bft) O-NO 74 0 min 0,000 mm 0,0 UV-I 0 W/m 0,2 C 0,9 C 3,2 km/h (1 Bft) 96,00 %
09.11.2016 23:56 0,9 C 95 % 1006,5 hPa 0,0 l/m 0,4 km/h (0 Bft) O-NO 74 0 min 0,000 mm 0,0 UV-I 0 W/m 0,2 C 0,9 C 1,6 km/h (1 Bft) 96,00 %
09.11.2016 23:58 0,9 C 96 % 1006,4 hPa 0,0 l/m 0,7 km/h (0 Bft) O-NO 74 0 min 0,000 mm 0,0 UV-I 0 W/m 0,3 C 0,9 C 1,6 km/h (1 Bft) 97,56 %
_ Min-Zeit 04:00 13:22 18:52 - 05:54 - - - - - - 04:00 15:04 05:54 21:40
Minimum _ -0,6 C 77 % 1005,8 hPa - 0,0 km/h (0 Bft) - - - - - - -0,9 C -0,7 C 0,0 km/h (0 Bft) 75,44 %
_ Max-Zeit 13:26 00:00 00:00 09:32 15:04 - - 15:20 14:02 11:36 11:26 13:34 13:26 14:38 00:14
Maximum _ 5,1 C 98 % 1012,2 hPa 0,2 l/m 12,5 km/h
O-NO (3 Bft)
- - 4 min 0,178 mm 1,1 UV-I 566 W/m 2,2 C 5,1 C 19,3 km/h
N-NO (3 Bft)
100,00 %
Durchschnitt _ 1,3 C 93 % 1008,6 hPa #0,2 l/m 2,9 km/h (1 Bft) NO - #5:54 h #0,787 mm 0,8 UV-I 205 W/m 0,3 C 1,1 C 5,2 km/h (1 Bft) 98,36 %